           , 1.998,  2.145,  2.293,  2.441,  2.589,  2.736,  2.884,  3.032,  3.179,  3.327,  3.475,  3.623,  3.770,  3.918,  4.066,  4.213,  4.361,  4.509,  4.657,  4.804,  4.952,  5.100,  5.248,  5.395,  5.543,  5.691,  5.838,  5.986,  6.134,  6.282,  6.429,  6.577,  6.725,  6.872,  7.020,  7.168,  7.316,  7.463,  7.611,  7.759,  7.907,  8.054,  8.202,  8.350,  8.497,  8.645,  8.793,  8.941,  9.088,  9.236,  9.384,  9.531,  9.679,  9.827,  9.975, 10.122, 10.270, 10.418, 10.565, 10.713, 10.861, 11.009, 11.156, 11.304, 11.452, 11.600, 11.747, 11.895, 12.043, 12.190, 12.338, 12.486, 12.634, 12.781, 12.929, 13.077, 13.224, 13.372, 13.520, 13.668, 13.815, 13.963, 14.111, 14.259, 14.406, 14.554, 14.702, 14.849, 14.997, 15.145, 15.293, 15.440, 15.588, 15.736, 15.883, 16.031, 16.179, 16.327, 16.474, 16.622, 16.770, 16.917, 17.065, 17.213, 17.361, 17.508, 17.656, 17.804, 17.952, 18.099, 18.247, 18.395, 18.542, 18.690, 18.838, 18.986, 19.133, 19.281, 19.429, 19.576
1986/11/14 00:05,   18.4,   19.1,   19.1,   19.4,   18.7,   19.4,   20.0,   20.6,   21.0,   21.5,   22.2,   22.9,   23.5,   23.0,   26.0,   23.4,   22.8,   24.8,   27.8,   31.2,   34.8,   38.9,   40.1,   41.3,   41.2,   40.8,   38.9,   39.2,   43.3,   47.6,   49.5,   50.8,   51.1,   51.9,   51.0,   52.5,   52.9,   53.3,   52.8,   51.3,   50.2,   50.2,   49.5,   52.3,   55.1,   52.5,   50.1,   50.0,   52.2,   49.7,   51.8,   51.6,   55.8,   55.8,   54.3,   56.4,   56.7,   56.9,   54.7,   56.5,   55.8,   62.2,   66.1,  999.0,   58.9,  999.0,   57.4,   57.8,   61.4,  999.0,   60.6,   57.8,   64.8,   60.4,   64.4,   55.7,   57.8,   54.7,   55.1,   56.5,  999.0,  999.0,   49.1,   54.9,   55.8,   42.3,   44.4,   45.4,   39.6,   39.5,   37.8,   36.2,   35.3,   31.3,   28.2,   26.1,   24.7,   23.9,   27.3,   31.0,   34.4,   32.2,   35.0,   36.7,  999.0,  999.0,   27.3,   28.3,   28.7,   28.0,   22.6,   24.4,   18.4,   15.1,   16.1,   12.6,   11.7,    7.2,    5.9,    9.1
1986/11/14 00:15,   18.5,   18.6,   19.0,   19.1,   19.5,   19.1,   18.9,   20.5,   21.4,   22.9,   22.5,   21.6,   21.6,   22.4,   24.3,   23.8,   23.3,   26.2,   28.8,   31.5,   34.8,   38.3,   40.9,   43.3,   41.6,   41.4,   38.9,   39.8,   44.2,   48.5,   53.5,   50.3,   51.9,   53.6,   53.2,   52.5,   54.9,   51.2,   51.5,   50.3,   49.9,   51.6,   50.9,   53.8,   50.4,   52.6,   50.1,   49.0,   50.9,   48.1,   50.9,   51.2,   53.2,   56.1,   54.7,   57.7,   55.2,   57.1,   55.2,   55.5,   59.1,   63.7,   55.8,   57.1,  999.0,   54.9,   58.4,  999.0,   58.2,  999.0,   57.2,   62.0,   60.8,   61.2,   57.8,   56.9,   53.9,   60.2,   55.2,   55.5,   54.8,  999.0,   47.2,   52.4,   55.8,  999.0,   42.8,   44.3,   44.1,   41.5,   38.2,   35.8,   35.8,   30.7,   27.2,   27.5,   25.2,   24.6,   28.9,   32.5,   35.9,   34.9,   35.5,   37.7,   30.1,  999.0,  999.0,   25.7,   27.1,   26.0,   21.1,   23.3,   16.6,   13.3,   14.8,   11.9,    8.9,    6.5,    4.8,    8.2
1986/11/14 00:25,   18.1,   18.6,   18.4,   18.6,   20.0,   20.6,   20.4,   19.6,   20.4,   21.8,   22.5,   22.7,   22.9,   23.1,   24.0,   23.0,   24.8,   27.6,   28.9,   31.2,   35.5,   38.3,   40.7,   42.8,   41.8,   41.8,   39.2,   40.0,   44.4,   49.7,   52.9,   49.9,   51.6,   53.5,   53.3,   53.6,   53.6,   54.5,   53.6,   52.9,   51.2,   51.1,   51.8,   52.1,   50.9,   54.3,   50.0,   49.2,   51.1,   49.5,   51.7,   51.6,   53.9,   55.0,   55.4,   58.1,   57.0,   56.5,   56.4,   56.6,   62.2,  999.0,   58.7,   60.4,  999.0,   57.0,   61.1,   58.1,   59.8,   61.4,  999.0,   57.0,   65.5,   60.6,   65.3,   56.7,   55.2,   59.2,   55.5,   56.9,  999.0,  999.0,   48.9,   51.4,   53.5,   55.4,   41.1,   42.9,   42.3,   41.5,   37.2,   38.0,   35.5,   30.8,   27.3,   27.6,   25.1,   26.5,   30.2,   33.1,   33.6,   35.4,   36.2,  999.0,   30.6,  999.0,   28.6,   27.4,   28.4,  999.0,   22.7,   24.7,   18.6,   14.1,   15.3,   13.0,   11.1,    5.8,    6.3,    8.7
1986/11/14 00:35,   18.3,   18.9,   18.4,   18.1,   18.5,   20.4,   20.4,   20.2,   19.8,   21.2,   22.8,   23.6,   24.7,   22.6,   23.5,   23.7,   27.0,   28.8,   29.9,   33.2,   36.5,   38.3,   39.8,   41.0,   41.1,   42.7,   39.1,   40.6,   44.3,   47.6,   50.8,   53.4,   54.2,   53.5,   53.6,   54.7,   55.0,   53.9,   54.0,   52.6,   51.2,   53.0,   53.8,   50.5,   49.6,   52.0,   48.4,   50.0,   51.5,   48.5,   52.6,   51.9,   54.6,   56.5,   56.7,   57.1,   58.1,   57.3,   54.7,   58.6,   65.4,  999.0,   61.4,   56.1,   58.8,   64.1,   57.1,   60.1,   65.6,   58.4,  999.0,  999.0,  999.0,   61.1,   60.1,   63.5,   55.4,   60.8,   54.0,   53.3,   58.1,  999.0,   48.8,   51.7,   54.1,   50.0,   42.4,   43.7,   43.7,   41.5,   36.6,   39.3,   33.2,   28.7,   26.6,   26.4,   26.2,   25.8,   29.2,   31.8,   33.2,   33.9,   35.2,  999.0,   29.5,   34.2,  999.0,   26.2,   27.8,   19.1,   22.3,   22.2,   18.0,   14.8,   15.7,   16.0,   10.9,    8.2,  999.0,    9.1
1986/11/14 00:45,   18.0,   18.6,   18.4,   18.6,   20.2,   21.1,   20.7,   21.5,   22.0,   23.0,   23.3,   24.0,   22.6,   23.3,   23.7,   24.9,   26.9,   28.1,   29.8,   32.9,   35.7,   38.2,   39.9,   39.5,   40.1,   40.7,   39.0,   39.8,   44.0,   47.6,   49.6,   51.6,   53.1,   52.2,   51.1,   53.8,   53.5,   53.7,   53.8,   51.2,   53.6,   53.6,   54.4,   50.0,   49.8,   52.6,   50.7,   51.2,   51.1,   49.6,   52.6,   51.5,   54.8,   55.9,   59.8,   56.6,   61.0,   56.6,   55.8,   56.7,   63.7,  999.0,  999.0,   58.1,   57.7,   54.1,   59.1,   64.0,  999.0,  999.0,  999.0,  999.0,  999.0,   61.5,   59.5,   62.6,   56.1,   56.4,   59.2,   51.4,   56.5,   58.4,   46.5,   50.7,   54.2,   54.5,   40.2,   42.5,   40.3,   40.9,   35.5,   37.9,   33.3,   26.3,   26.6,   25.9,   26.9,   26.9,   30.5,   33.3,   36.0,   36.6,   30.3,   28.6,   31.1,  999.0,  999.0,   27.2,   28.8,   23.7,   22.1,   20.9,   16.5,   13.8,   14.0,   16.2,   11.1,    9.4,    7.3,    9.7
1986/11/14 00:55,   18.9,   18.7,   18.0,   19.1,   20.3,   21.0,   21.4,   21.6,   22.0,   22.8,   22.5,   22.1,   24.0,   24.0,   22.6,   23.7,   26.9,   28.9,   30.1,   32.9,   35.5,   38.0,   39.6,   38.5,   40.2,   38.9,   38.9,   41.0,   46.1,   49.1,   51.0,   53.9,   53.5,   52.5,   50.8,   49.8,   53.2,   52.1,   52.0,   53.2,   53.1,   54.1,   53.2,   51.4,   49.8,   51.4,   49.7,   51.2,   51.2,   49.9,   53.9,   52.4,   55.1,   55.8,   59.1,   56.8,   59.7,   57.6,   58.1,   55.4,   59.9,  999.0,  999.0,   58.0,   58.9,   56.2,   59.4,   66.0,  999.0,  999.0,  999.0,  999.0,  999.0,   61.8,   56.6,   60.5,   62.9,   58.3,   56.6,   56.2,   53.1,   57.0,  999.0,   49.8,   54.6,   51.0,   41.7,   43.2,   41.5,   41.5,   36.6,   38.8,   33.6,   27.4,   26.1,   26.2,   25.8,   26.4,   29.4,   32.9,   35.7,   32.0,   31.5,   28.3,   29.4,   30.5,   25.7,   27.7,   27.9,   30.6,   22.9,   24.7,   16.8,   16.4,   13.5,   15.9,   10.3,    8.4,    8.2,    8.8
1986/11/14 01:05,   19.6,   19.2,   18.6,   18.2,   19.8,   20.9,   21.1,   22.1,   22.1,   22.1,   22.5,   23.6,   24.7,   23.3,   23.3,   24.9,   28.0,   28.5,   29.6,   32.4,   36.6,   39.0,   39.5,   40.2,   41.4,   39.0,   38.1,   42.7,   47.0,   49.6,   52.2,   54.3,   51.8,   51.7,   51.6,   50.9,   50.2,   51.5,   51.2,   52.3,   52.7,   51.6,   53.6,   54.5,   53.8,  999.0,   49.5,   50.0,   47.3,   52.5,   53.8,   53.4,   54.7,   53.2,   54.9,   60.8,   56.2,   60.0,   57.3,   59.4,   52.9,   59.1,   66.6,   57.6,   57.7,   61.9,   58.0,   67.5,  999.0,   60.3,  999.0,  999.0,  999.0,   62.7,   62.6,   56.5,   61.1,   57.8,   55.5,   56.2,   53.2,   55.9,   46.6,   51.8,   55.0,  999.0,   41.8,   44.0,   41.0,   39.7,   38.9,   39.6,   33.1,   29.5,   26.9,   26.0,   27.0,   25.0,   28.8,   31.4,   32.4,   29.5,   29.5,   29.6,   27.8,   30.0,   26.2,   28.6,   28.3,   29.7,   24.4,   24.4,   16.5,   14.1,   13.7,   14.3,   10.4,    9.4,    8.0,    9.6
1986/11/14 01:15,   18.9,   18.7,   18.0,   18.2,   18.7,   20.2,   20.6,   21.1,   22.8,   22.8,   23.3,   23.3,   23.3,   22.7,   22.7,   24.8,   26.2,   27.7,   30.2,   33.8,   37.0,   38.2,   39.7,   41.0,   40.5,   37.4,   39.9,   45.1,   48.3,   50.8,   53.0,   53.4,   52.3,   53.2,   51.8,   48.2,   50.0,   51.2,   51.3,   52.0,   53.5,   52.8,   52.9,   54.9,   55.9,   57.4,  999.0,   48.0,   50.1,   53.5,   50.4,   53.4,   54.0,   53.8,   55.3,   57.1,   59.4,   58.0,   56.1,   58.0,   55.2,   55.4,   59.8,   65.8,   58.5,   60.4,   59.8,   58.9,   61.4,   61.9,  999.0,  999.0,   65.0,   67.3,   63.7,   59.1,   61.0,   50.8,   55.6,   57.0,   54.4,   57.5,   47.1,   52.2,   54.2,  999.0,   40.0,   42.8,   40.8,   40.7,   38.0,   38.5,   30.3,   29.2,   26.9,   25.3,   25.7,   26.4,   29.1,   32.6,   30.8,   32.5,   30.1,   29.7,   29.4,   30.2,   25.7,   28.0,   29.7,   26.9,   24.4,   24.6,   17.8,   16.7,   18.0,   16.4,   15.3,    9.5,    7.8,    8.0
1986/11/14 01:25,   18.6,   18.8,   18.9,   19.1,   19.6,   19.9,   19.9,   20.8,   21.5,   21.7,   22.3,   22.0,   22.4,   22.3,   23.0,   26.1,   27.6,   29.2,   30.5,   33.4,   36.8,   38.9,   39.5,   41.3,   39.0,   37.6,   39.5,   44.3,   48.3,   50.6,   52.5,   51.6,   51.3,   51.5,   49.8,   50.7,   49.4,   49.0,   50.6,   50.8,   51.6,   52.8,   53.5,   52.7,   53.7,   57.7,   56.9,   48.0,   52.8,   52.9,   51.8,   54.7,   56.1,   55.6,   56.3,   59.0,   60.2,   56.6,   56.3,   55.2,   54.8,   55.7,   61.1,   63.4,  999.0,   56.0,   61.5,   59.1,   63.0,   60.3,   60.9,  999.0,   58.2,   64.9,   60.8,   65.3,   57.2,   59.4,   54.7,   55.9,   55.8,   57.4,   47.3,   51.9,   53.7,  999.0,   39.9,   41.0,   43.3,   39.6,   37.8,   41.2,   28.8,   29.1,   27.4,   25.6,   27.2,   27.0,   30.2,   32.7,   32.8,   33.1,   30.7,   29.7,   28.3,   30.7,  999.0,   27.8,   28.7,   26.2,   25.2,   27.2,   18.0,   14.2,   13.9,   13.9,   11.6,    9.8,    9.0,    9.5
1986/11/14 01:35,   18.0,   17.4,   18.6,   19.3,   19.9,   20.0,   20.9,   21.3,   21.2,   21.3,   21.7,   21.4,   23.5,   23.0,   25.1,   27.0,   27.9,   28.9,   28.8,   32.7,   36.1,   38.7,   38.8,   40.3,   40.0,   37.6,   37.9,   42.2,   46.1,   48.6,   50.7,   52.2,   48.8,   48.6,   49.4,   50.3,   51.2,   51.4,   51.4,   51.2,   52.1,   52.1,   51.9,   54.7,   53.9,   52.7,   54.6,   55.3,   50.8,   54.4,   50.8,   53.7,   56.3,   55.5,   54.6,   59.3,   59.2,   54.5,   58.1,   54.0,   54.2,   58.5,   62.5,   63.7,  999.0,   55.2,   57.9,   60.5,   60.5,   65.6,   62.0,  999.0,   60.6,   61.6,   66.0,   62.2,   59.9,   59.7,   60.4,   54.0,   53.5,   56.9,   43.8,   50.3,   53.6,   54.5,   41.2,   44.3,   40.4,   39.8,   38.1,   40.9,   38.4,   27.7,   28.3,   28.0,   27.9,   27.8,   28.6,   32.6,   33.9,   33.3,   32.5,   28.4,   29.6,   31.5,   25.0,   28.7,   31.1,   24.2,   26.0,   24.1,   16.8,   15.6,   16.5,   16.1,   11.7,    8.7,    9.1,    9.4
1986/11/14 01:45,   17.7,   18.6,   19.2,   19.9,   20.5,   21.5,   21.5,   21.3,   21.7,   21.1,   21.8,   22.0,   22.2,   23.5,   25.1,   26.7,   28.2,   27.7,   29.8,   34.1,   37.5,   38.5,   39.4,   39.5,   40.1,   37.9,   38.7,   44.1,   46.5,   47.5,   49.5,   50.7,   47.8,   48.0,   49.6,   49.2,   49.0,   49.2,   50.2,   51.3,   52.3,   52.9,   52.9,   51.5,   50.5,   53.3,   52.8,   55.7,   51.3,   56.1,   50.7,   53.4,   57.7,   55.3,   57.1,   60.6,   57.4,   59.7,   54.3,   55.4,   56.2,   59.6,   60.2,  999.0,   52.1,   57.0,   59.9,   59.6,   63.0,  999.0,   61.6,  999.0,  999.0,   61.8,   69.0,   58.8,   62.8,   58.2,   58.2,   54.5,   58.0,   55.9,   49.2,   52.3,   54.9,   50.5,   43.3,   44.3,   49.0,   41.5,   41.1,   43.4,   33.0,   29.4,   29.1,   27.9,   28.2,   26.8,   26.5,   30.0,   31.9,   32.8,   29.5,   27.3,   26.9,   29.0,   25.0,   28.9,   30.3,   27.1,   27.4,   28.7,   17.1,   15.4,   15.4,   13.5,   12.0,    8.4,    8.9,    8.9
1986/11/14 01:55,   17.4,   17.8,   18.0,   19.0,   19.7,   19.7,   20.5,   21.7,   23.3,   23.1,   23.2,   24.8,   22.9,   23.5,   24.5,   26.7,   27.9,   28.2,   29.7,   34.2,   37.0,   38.5,   38.3,   40.1,   37.1,   38.9,   44.9,   47.9,   50.5,   48.6,   48.6,   48.7,   48.4,   47.9,   48.9,   49.6,   48.9,   49.2,   49.9,   50.7,   50.8,   51.7,   52.2,   52.9,   52.7,   50.6,   54.9,   56.0,   51.0,   54.8,   51.9,   53.8,   59.3,   55.5,   56.9,   61.1,   57.9,   61.8,  999.0,   52.9,   57.6,   60.5,   58.0,  999.0,   54.3,   58.1,   59.5,   61.6,  999.0,   59.1,   65.6,  999.0,  999.0,   61.5,   63.7,   62.5,   58.7,   59.0,   59.4,   54.0,   56.7,   54.2,   52.1,   52.1,   51.8,   43.0,   42.6,   42.2,   43.8,   38.9,   37.4,   38.4,   35.0,   24.5,   24.8,   25.7,   27.8,   27.1,   28.8,   32.5,   31.4,   33.1,   30.1,  999.0,   27.3,   29.2,   25.4,   28.0,   29.7,   29.5,   27.2,   22.3,   16.1,   15.4,   13.3,   13.5,   11.8,    8.8,    8.8,    9.8
1986/11/14 02:05,   17.0,   18.1,   18.7,   18.0,   19.4,   18.8,   19.7,   20.7,   20.9,   21.0,   22.7,   23.6,   23.5,   23.6,  999.0,   28.3,   28.4,   28.8,   30.2,   34.5,   37.6,   39.5,   40.2,   41.2,   38.2,   41.0,   46.2,   49.5,   48.8,   48.4,   49.5,   49.2,   49.7,   48.6,   47.7,   49.5,   50.3,   50.6,   50.6,   50.3,   50.4,   50.8,   51.2,   52.8,   53.1,   52.6,   54.6,   56.3,   50.7,   54.3,   52.3,   53.9,   58.8,   57.5,   60.8,   58.5,   58.2,   55.0,   53.7,   56.8,   61.7,  999.0,  999.0,   54.3,   58.2,   58.7,   62.3,   61.4,  999.0,   60.4,   63.2,  999.0,  999.0,   61.4,   64.2,   61.9,   66.1,   56.5,   57.9,   56.0,   55.4,   54.5,   50.9,   50.3,   54.8,   43.9,   41.5,   43.0,   41.6,   38.8,   35.9,   36.3,   35.4,   25.3,   23.2,   24.7,   27.3,   27.8,   30.8,   32.2,   31.7,   34.3,   32.1,   30.0,   27.2,   27.7,   23.1,   26.9,   28.7,   24.2,   24.4,   23.7,   14.8,   14.4,   13.4,   12.2,   12.0,   10.1,   10.8,   10.8
1986/11/14 02:15,   17.4,   17.8,   18.2,   19.0,   19.4,   20.1,   20.2,   20.8,   21.5,   20.4,   22.6,   24.8,   25.5,   24.0,   25.8,   28.6,   29.2,   29.2,   30.7,   35.0,   38.9,   41.8,   42.2,   40.0,   38.2,   42.6,   47.1,   49.6,   48.7,   47.7,   48.7,   48.7,   48.6,   48.8,   48.6,   48.3,   48.9,   51.5,   53.5,   50.7,   51.4,   52.2,   52.8,   52.2,   50.4,   51.4,   55.0,   58.8,   50.7,   53.5,   51.4,   53.4,   58.2,   55.2,   60.1,   55.7,   57.1,   54.5,   54.3,   56.3,   59.2,   55.2,   49.8,   54.2,   57.5,   59.2,   57.5,   60.8,  999.0,   63.6,  999.0,   57.7,   59.5,   63.8,   60.3,   60.1,  999.0,  999.0,   54.2,   60.3,   55.1,   52.5,   56.0,   48.4,   51.3,   47.1,   38.9,   41.1,   41.3,   38.4,   35.1,   36.4,   35.9,   26.1,   24.2,   25.2,   27.1,   28.6,   31.7,   31.7,   34.2,   33.7,   33.0,   28.6,   28.6,   29.9,   24.2,   26.6,   27.9,   26.0,   23.7,   24.9,   15.8,   15.1,   13.4,   13.1,   13.5,   10.2,   10.8,   10.4
1986/11/14 02:25,   17.1,   17.9,   18.2,   18.4,   19.4,   20.3,   20.2,   19.7,   19.6,   19.1,   19.7,   22.4,   23.4,   23.3,   24.9,   27.4,   29.2,   28.8,   31.2,   36.3,   40.2,   42.1,   41.9,   42.2,   39.4,   43.3,   47.6,   50.1,   49.4,   48.5,   49.0,   47.8,   47.9,   47.8,   48.1,   49.1,   49.8,   52.2,   53.1,   51.9,   52.2,   52.0,   52.0,   50.0,   50.3,   52.9,   55.7,   58.1,   51.1,   53.2,   50.3,   55.4,   60.5,   58.0,   60.6,   56.9,   57.4,   57.5,   55.7,   58.0,   64.3,   53.0,  999.0,   53.5,   58.8,   61.7,   60.5,  999.0,   60.0,  999.0,  999.0,   61.2,   61.4,   69.3,   63.0,   60.0,   66.6,  999.0,  999.0,   55.6,   58.7,   54.2,   52.8,   50.3,   51.8,   47.5,   44.9,   41.3,   42.6,   36.8,   34.7,   36.5,   34.7,   27.6,   22.9,   24.4,   26.7,   27.3,   31.4,   30.4,   33.4,   30.2,   33.7,  999.0,   27.7,   28.9,   25.8,   28.5,   29.3,   28.3,   23.6,   25.6,   16.8,   15.3,   14.4,   13.6,   13.8,   11.4,   10.8,   10.9
1986/11/14 02:35,   17.5,   17.7,   17.2,   17.5,   18.3,   19.4,   20.9,   20.0,   18.1,   19.4,   20.0,   22.7,   23.8,   24.7,   26.8,   26.9,   28.3,   28.0,   30.7,   36.2,   39.9,   40.4,   41.3,   41.8,   39.0,   43.3,   46.3,   47.6,   47.8,   47.7,   46.9,   45.2,   46.8,   47.0,   47.6,   49.8,   48.8,   50.8,   52.8,   51.9,   52.1,   50.8,   52.2,   52.6,   51.1,   48.9,   51.2,   57.5,   57.1,   53.4,   50.8,   57.3,   57.6,   58.8,   57.1,   57.3,   56.9,   56.0,   56.2,   58.0,   59.7,  999.0,  999.0,   54.4,   58.8,   60.2,   58.4,  999.0,   61.0,  999.0,   61.3,   60.7,   61.7,   60.6,   59.6,   61.0,   59.0,   63.2,  999.0,   51.1,   55.9,   56.4,   53.1,   47.7,   52.0,   51.5,   39.8,   38.6,   40.7,   39.6,   36.4,   35.1,   35.6,   28.7,   24.8,   26.7,   28.3,   30.0,   32.2,   32.7,   33.4,   31.7,   32.6,   29.3,   27.8,   28.0,   26.3,   28.8,   30.9,   22.0,   23.0,   25.0,   18.5,   16.0,   15.3,   14.9,   14.0,   12.6,   10.8,   11.0
1986/11/14 02:45,   17.2,   17.4,   18.6,   19.6,   19.9,   20.3,   20.3,   21.3,   19.7,   19.4,   19.5,   21.5,   22.6,   24.0,   25.5,   25.4,   27.3,   27.9,   30.5,   35.6,   39.2,   41.1,   41.2,   40.3,   41.7,   43.9,   47.7,   47.6,   46.4,   45.5,   46.5,   43.6,   45.8,   47.1,   47.8,   48.0,   49.0,   51.7,   52.6,   52.3,   50.3,   49.9,   49.9,   49.5,   49.7,   48.6,   52.2,   53.5,   59.3,   52.1,   50.5,   56.3,   57.4,   59.1,   55.8,   56.0,   57.2,   53.8,   58.7,   60.7,   64.5,  999.0,   54.7,   56.4,   58.9,   58.8,   60.8,  999.0,   59.5,   63.2,   53.4,   59.6,   62.0,   62.5,   61.9,   60.5,   60.7,   59.2,   59.8,   58.7,   50.2,   57.4,   53.9,   51.6,   50.1,   50.3,   42.4,   41.5,   39.0,   38.7,   38.0,   37.2,   37.2,   27.9,   26.5,   27.5,   30.4,   29.0,   31.6,   31.0,   31.6,   28.3,   29.0,   28.3,  999.0,   23.8,   26.7,   26.8,   28.8,  999.0,   20.8,   21.1,   22.6,   13.5,   13.9,   14.5,   14.5,   12.1,   11.2,   11.6
1986/11/14 02:55,   17.3,   18.8,   19.3,   19.9,   20.2,   19.5,   18.4,   20.9,   21.1,   19.7,   21.8,   23.8,   25.3,   25.1,   26.2,   26.3,   27.6,   27.4,   29.9,   34.0,   38.8,   40.2,   41.2,   40.8,   40.7,   43.4,   45.1,   46.8,   45.5,   47.1,   48.0,   46.1,   44.5,   45.6,   47.3,   49.0,   50.4,   51.4,   50.8,   47.6,   48.9,   50.4,   51.1,   51.2,   50.4,   49.9,   52.0,   57.2,   55.6,   52.1,   51.4,   55.7,   58.4,   58.2,   57.1,   54.1,   58.0,   56.0,   58.3,   59.1,   60.4,  999.0,   54.2,   57.4,   59.5,   59.2,   60.5,   59.1,   57.1,   61.3,  999.0,   59.7,   61.4,   61.9,   61.6,   61.6,   60.0,   61.0,   58.8,   60.9,   51.0,   53.8,   59.3,   49.9,   53.4,   48.6,   42.8,   41.7,   40.2,   37.5,   37.7,   35.5,   36.4,   28.4,   27.6,   28.1,   29.2,   30.6,   33.0,   35.6,   32.1,   29.5,   30.4,   27.7,   30.0,   25.2,   26.4,   26.8,   29.6,   21.3,   21.9,   23.3,   24.4,   14.5,   14.5,   13.4,   14.1,   12.0,    9.6,   10.4
1986/11/14 03:05,   16.4,   16.8,   18.2,   18.6,   19.2,   19.2,   19.2,   17.9,   17.4,   18.4,   19.7,   21.5,   22.7,   23.3,   24.6,   24.2,   25.9,   26.8,   29.2,   32.4,   36.4,   38.8,   40.3,   40.6,   39.5,   42.5,   44.2,   46.2,   46.0,   45.5,   45.2,   47.9,   44.3,   45.9,   46.8,   47.8,   50.2,   53.9,   51.9,   49.1,   50.7,   50.6,   49.8,   50.2,   49.9,   50.1,   51.0,   55.0,  999.0,   51.4,   50.6,   54.1,   58.3,   56.7,   53.8,   56.1,   60.1,   59.8,   57.0,   56.5,   60.0,  999.0,   52.9,   56.7,   61.3,   57.2,   61.9,  999.0,   59.2,  999.0,  999.0,   60.0,   65.3,   60.1,   62.0,   61.8,   61.0,   61.1,   60.4,   63.1,   56.5,   53.3,   60.0,   50.5,   53.1,   50.6,   43.6,   44.2,   42.8,   41.9,   39.5,   37.3,   35.9,   28.6,   29.2,   30.0,   30.2,   33.5,   35.2,   32.8,   33.0,   29.9,   32.2,  999.0,   29.3,   19.9,   25.2,   27.3,   28.8,  999.0,   21.9,   23.9,   24.1,   14.5,   15.3,   13.1,   12.8,   11.6,    9.4,   10.7
1986/11/14 03:15,   18.1,   18.7,   19.5,   19.9,   19.9,   18.9,   18.6,   18.5,   19.2,   19.9,   21.5,   22.2,   22.3,   23.9,   24.5,   25.0,   25.8,   26.8,   30.3,   34.0,   39.0,   41.1,   42.0,   41.4,   41.9,   41.3,   44.5,   47.1,   46.3,   46.0,   44.3,   45.5,   47.3,   47.2,   48.6,   51.4,   51.4,   50.7,   49.6,   50.4,   51.1,   51.0,   51.1,   52.4,   51.2,   51.0,   50.6,   54.7,   55.3,   50.9,   50.6,   53.7,   59.9,   56.7,   55.1,   55.7,   59.8,   60.7,   59.8,   58.2,   58.5,   62.7,   54.4,   59.9,   61.2,   60.6,   60.6,   56.5,  999.0,  999.0,   58.5,   61.0,   66.2,   60.1,   61.9,   63.3,   60.8,   60.1,   62.6,   62.3,  999.0,   53.2,   57.6,   51.2,   52.8,   52.0,   44.0,   42.0,   42.3,   39.5,   41.9,   36.8,   36.1,   30.4,   29.8,   31.9,   29.8,   33.7,   34.2,   37.1,   28.0,   31.0,   34.8,   28.1,   30.3,   23.2,   27.4,   28.5,   29.8,   22.8,   22.1,   24.0,  999.0,   15.4,   14.6,   13.5,   13.4,   11.8,    9.3,   11.5
1986/11/14 03:25,   18.3,   18.9,   19.4,   18.9,   19.0,   18.8,   18.3,   18.1,   18.6,   19.2,   20.6,   22.1,   22.5,   23.5,   23.8,   25.4,   25.4,   27.4,   30.5,   35.8,   39.0,   42.7,   41.6,   40.8,   41.4,   42.4,   46.4,   47.1,   45.3,  999.0,   44.5,   47.0,   48.4,   49.9,   51.5,   51.4,   51.0,   50.2,   50.4,   50.8,   50.2,   49.7,   49.8,   50.6,   48.8,   48.5,   52.6,   55.7,  999.0,   51.3,   51.5,   51.8,   57.5,   57.2,   54.2,   54.7,   58.1,   59.9,   58.4,   57.2,   58.7,   59.0,   59.2,   56.2,   60.5,   57.7,   62.2,  999.0,   54.9,   63.9,  999.0,   60.4,   65.9,   59.2,   60.7,   62.8,   63.3,   58.5,   59.5,   59.2,   61.8,   52.0,   56.2,   52.8,   52.8,   49.9,   42.6,   43.6,   42.8,   40.0,   41.6,   38.3,   37.4,   29.2,   30.9,   31.1,   31.8,   35.1,   35.3,   35.3,   31.0,   34.4,   34.4,  999.0,  999.0,   24.9,   27.4,   28.3,   28.5,  999.0,   22.9,   20.9,   22.0,   18.1,   13.1,   13.4,   13.0,   10.8,    9.9,   11.4
1986/11/14 03:35,   17.6,   17.5,   18.2,   19.0,   18.8,   18.3,   19.0,   19.3,   19.4,   18.6,   19.7,   21.4,   22.4,   23.8,   23.2,   24.4,   26.0,   26.3,   28.7,   32.1,   36.6,   37.7,   39.2,   39.5,   39.7,   42.5,   46.9,   45.8,   41.8,   42.8,   46.3,   48.0,   49.9,   51.1,   52.1,   52.3,   51.1,   51.6,   52.1,   51.3,   49.9,   50.1,   50.1,   49.0,   49.5,   50.8,   52.3,   51.5,  999.0,   48.6,   50.9,   50.3,   55.7,   57.8,   55.2,   54.8,   55.9,   58.8,   59.6,   59.4,   58.9,   59.2,   59.4,   53.6,   59.8,   58.7,   61.4,  999.0,  999.0,   62.2,   61.6,   60.5,   63.3,   67.1,   58.3,   58.9,   60.6,   59.8,   58.9,   57.3,   62.0,  999.0,   56.1,   50.2,   51.0,   52.8,  999.0,   41.9,   41.9,   38.6,   41.0,   36.5,   34.1,   31.9,   30.3,   30.7,   33.4,   35.7,   34.8,   34.5,   32.7,   34.6,   32.5,   30.6,  999.0,   26.2,   28.5,   28.2,   28.2,   26.1,   22.3,   19.9,   19.6,   19.9,   13.6,   13.1,   12.4,   12.0,   11.0,   11.7
1986/11/14 03:45,   18.0,   18.2,   19.0,   19.9,   20.2,   19.8,   19.0,   18.0,   17.5,   19.2,   20.0,   21.8,   24.4,   24.2,   24.2,   25.5,   25.4,   26.1,   29.4,   32.8,   36.8,   37.9,   38.1,   39.2,   39.2,   41.9,   45.7,   44.0,   43.7,   46.1,   47.0,   47.5,   49.3,   50.3,   50.2,   50.8,   50.4,   50.8,   50.6,   51.6,   52.1,   51.5,   51.1,   50.6,   50.5,   50.8,   52.7,   53.6,   51.8,   51.4,   51.6,   49.7,   55.4,   56.4,   55.3,   56.2,   55.6,   57.6,   60.6,   61.8,   56.8,   58.6,   55.3,   55.5,   60.2,   60.4,   63.5,  999.0,  999.0,   57.8,  999.0,   58.9,   60.3,   63.2,   62.4,   61.9,   58.1,   58.5,   60.4,   56.3,  999.0,   46.0,   52.6,   48.7,   50.9,   48.5,   42.5,   41.1,   41.2,   39.8,   39.2,   36.4,   34.3,   29.6,   30.1,   30.4,   33.7,   34.5,   33.9,   35.6,   30.8,   33.3,   32.1,   30.2,   27.4,   24.9,   26.6,   27.3,   28.0,   26.0,   21.6,   19.3,   18.8,   19.4,   12.4,   12.9,   13.4,   11.6,   10.5,   12.8
1986/11/14 03:55,   17.0,   17.2,   18.3,   18.8,   19.0,   19.7,   19.8,   18.9,   19.8,   19.7,   19.9,   21.7,   23.7,   23.7,   24.3,   26.1,   26.0,   28.3,   31.1,   34.4,   37.7,   39.3,   38.7,   39.0,   40.1,   43.1,   46.1,   45.1,   44.2,   45.8,   46.9,   47.6,   48.7,   49.8,   50.3,   50.7,   50.8,   50.6,   51.3,   49.7,   50.8,   51.3,   51.0,   51.6,   51.6,   51.1,   51.6,   51.0,   52.0,   54.2,   53.2,   50.8,   56.8,   56.1,   55.7,   56.4,   56.5,   60.0,   61.6,  999.0,  999.0,   55.5,   54.9,   59.5,   58.6,   62.0,  999.0,  999.0,  999.0,   58.6,   61.1,  999.0,   59.7,   58.3,   62.7,  999.0,   59.6,   58.9,   59.2,   55.5,   57.8,   45.7,   52.8,   50.6,   51.9,  999.0,   42.4,   41.2,   40.0,   40.3,   39.7,   42.1,   34.7,   28.7,   30.1,   31.5,   34.8,   34.4,   35.2,   36.5,   30.6,   32.3,   32.0,   28.6,   29.1,   25.3,   22.4,   24.8,   26.5,   25.0,   20.3,   19.1,   19.9,   18.6,   12.4,   14.7,   16.3,   13.3,   12.4,   11.0
1986/11/14 04:05,   17.7,   18.6,   18.8,   18.1,   18.0,   18.0,   17.4,   16.7,   17.3,   20.1,   21.2,   22.8,   24.5,   23.3,   24.1,   25.0,   25.3,   27.0,   29.5,   33.6,   36.9,   39.4,   40.6,   39.7,   38.4,   42.2,   43.1,   43.4,   43.3,   45.1,   46.4,   48.5,   49.5,   51.4,   52.0,   52.3,   51.4,   50.4,   50.2,   50.2,   51.4,   49.7,   49.2,   49.1,   49.3,   48.9,   48.6,   50.1,   52.8,   50.8,   51.9,   49.6,   54.8,   56.7,   55.2,   55.1,   57.4,   58.9,   58.9,   56.2,   56.8,   55.6,   53.2,   57.4,   56.5,   58.8,  999.0,  999.0,   55.2,   57.4,  999.0,  999.0,   58.6,   60.9,   61.2,   59.9,   57.8,   57.4,   56.4,   56.9,   57.4,  999.0,   50.6,   50.8,   48.7,   46.9,   43.0,   42.8,   40.4,   40.4,   39.4,   40.0,   32.7,   29.6,   30.7,   31.6,   35.3,   34.3,   36.7,   33.4,   30.8,   32.4,   31.3,   27.4,   28.3,   24.9,   21.5,   24.6,   24.5,   22.9,  999.0,   20.1,   21.9,   20.2,   16.0,   14.7,   16.2,   13.9,   13.4,   11.3
1986/11/14 04:15,   18.2,   17.9,   18.7,   18.7,   18.7,   17.2,   16.6,   16.0,  999.0,   17.6,   21.6,   22.2,   22.9,   22.9,   23.4,   23.9,   25.0,   27.5,   30.5,   34.7,   38.0,   40.5,   41.0,   39.5,   41.2,   43.4,   44.2,   42.8,   45.6,   47.8,   47.9,   49.2,   50.4,   51.3,   52.5,   52.2,   50.7,   50.9,   49.2,   48.4,   49.6,   48.9,   49.6,   49.8,   49.1,   50.2,   49.7,   50.3,   53.5,   51.1,   53.3,   49.8,   52.7,   56.7,   53.8,   53.5,   58.1,   56.3,   55.3,   58.1,   57.9,   58.9,   54.2,   57.2,   57.4,   60.9,  999.0,   53.0,   58.6,   63.1,   59.5,   64.3,   61.0,   62.0,   61.6,   55.2,   59.3,   58.8,   55.7,   57.7,   57.9,  999.0,   50.8,   52.8,   48.0,   49.9,   43.8,   44.9,   43.0,   41.1,   40.8,   38.0,   33.3,   32.0,   32.1,   33.0,   36.6,   36.3,   36.9,   34.4,   31.1,   33.3,   31.4,   28.0,   27.8,   27.2,   22.5,   24.0,   25.4,   25.0,   22.6,   20.1,   20.2,   20.8,   17.8,   15.6,   16.1,   15.3,   14.0,   11.2
1986/11/14 04:25,   18.5,   18.1,   18.5,   17.0,   17.2,   16.2,   17.0,   17.5,   18.9,   20.0,   21.6,   22.5,   23.8,   23.7,   24.5,   24.0,   25.6,   27.9,   31.2,   35.9,   39.3,   41.0,   41.9,   38.0,   41.1,   44.7,   43.3,   44.0,   44.9,   46.4,   49.2,   48.9,   50.9,   52.5,   51.2,   51.9,   51.0,   50.7,   51.5,   51.1,   51.1,   50.5,   50.0,   49.6,   49.5,   49.9,   50.1,   52.2,   51.5,   50.8,   52.5,   48.0,   52.5,   56.2,   53.5,   55.2,   56.2,   58.2,   55.8,   56.7,   57.7,   58.2,   53.6,   57.2,   59.4,   62.3,  999.0,   58.3,   61.6,  999.0,   62.8,   59.7,   61.9,   66.4,  999.0,   54.9,   60.8,   55.8,   59.6,   59.0,  999.0,   49.1,   53.6,   49.9,   50.5,   51.3,   43.4,   44.8,   46.5,   41.3,   40.5,   40.7,   37.6,   31.5,   32.9,   34.4,   36.6,   38.9,   40.2,   32.0,   33.4,   30.7,   32.9,   28.1,   28.2,   26.6,   25.0,   21.6,   24.2,   26.2,   22.8,   19.0,   20.5,   19.6,   15.8,   15.2,   16.2,   14.1,   14.1,   11.6
1986/11/14 04:35,   18.3,   18.3,   18.3,   17.3,   16.2,   16.0,   16.0,   18.5,   18.9,   19.9,   21.8,   23.5,   24.2,   24.2,   24.1,   24.0,   25.4,   28.5,   32.4,   36.8,   40.2,   39.8,   41.7,   38.1,   41.0,   45.2,   41.2,   43.1,   46.3,   46.9,   47.4,   48.6,   50.3,   52.4,   52.7,   52.5,   52.4,   51.6,   52.5,   50.9,   50.9,   50.9,   50.3,   50.3,   49.3,   49.8,   49.4,   51.7,   50.1,   50.1,   52.3,   49.4,   52.4,   55.4,   54.7,   54.1,   54.8,   57.5,   54.8,   56.9,   56.4,   57.8,   54.8,   57.7,   58.6,  999.0,  999.0,   58.2,  999.0,  999.0,  999.0,   60.6,   63.3,   62.4,  999.0,  999.0,   57.0,   58.6,   57.8,   58.9,   64.1,   52.7,   54.3,   51.4,   53.1,   56.8,   43.7,   41.0,   45.2,   42.4,   41.4,   40.5,   37.6,   31.9,   32.3,   33.9,   35.6,   37.2,   35.1,   34.5,   31.4,   30.0,  999.0,   26.2,   28.9,   24.8,   26.1,   22.0,   24.9,   26.8,   21.1,   20.6,   21.6,   17.2,   15.5,   15.3,   15.2,   13.1,   11.7,   10.8
1986/11/14 04:45,   18.1,   17.6,   17.2,   16.3,   15.9,   15.8,   16.1,   17.0,   18.4,   19.6,   21.7,   23.3,   23.4,   23.5,   23.3,   25.2,   25.7,   29.3,   33.3,   37.5,   39.4,   39.9,   39.8,   38.8,   42.1,   44.7,   41.3,   44.7,   48.2,   46.0,   48.9,   51.5,   53.6,   54.0,   55.1,   52.8,   53.2,   52.7,   52.9,   51.0,   50.7,   50.9,   50.4,   49.4,   48.9,   49.8,   52.5,   52.6,   47.9,   51.0,   51.1,   49.2,   53.2,   55.6,   53.9,   52.7,   52.3,   54.0,   56.9,   57.7,   54.6,   57.5,   52.8,   56.5,   58.0,   64.0,   54.1,   57.8,  999.0,  999.0,   56.7,   60.6,   64.4,   61.0,   65.0,   59.3,   55.3,   57.9,   57.0,   58.9,   61.6,  999.0,   51.6,   51.7,   51.6,   53.7,  999.0,   43.7,   42.8,   44.6,   42.0,   43.0,   39.2,   34.4,   33.1,   35.4,   37.2,   37.2,   37.2,   36.0,   33.3,   33.3,   29.3,   27.8,   30.5,   26.0,   24.7,   22.2,   24.9,   25.4,   21.6,   18.5,   19.4,   17.0,   14.4,   13.4,   13.4,   12.8,   11.1,   11.9
1986/11/14 04:55,   17.4,   17.4,   17.0,   15.1,   16.1,   15.9,   17.1,   17.4,   18.4,   20.3,   22.2,   22.6,   23.7,   23.1,   23.8,   25.4,   26.6,   30.0,   35.2,   38.9,   40.4,   39.7,   38.7,   38.6,   40.7,   41.8,   41.5,   45.0,   47.8,   46.9,   49.7,   51.4,   53.1,   52.7,   52.1,   51.2,   51.2,   50.8,   51.0,   50.7,   49.3,   51.7,   50.9,   47.7,   49.4,   49.2,   51.4,   53.4,   46.6,   50.1,   49.5,   50.3,   56.7,   51.9,   55.2,   52.7,   57.5,   50.9,   56.7,   62.4,   52.7,   56.5,   54.3,   56.6,   60.2,   50.1,   56.9,   59.4,  999.0,  999.0,   59.2,   63.4,   64.3,   59.6,   64.3,   58.2,   55.1,   59.0,   55.0,   58.2,  999.0,  999.0,   49.9,   51.4,   51.2,   52.4,   54.6,   41.9,   41.4,   45.0,   40.6,   40.3,   38.2,   35.0,   32.7,   34.4,   35.9,   37.6,   37.8,   36.3,   33.9,   33.2,   28.1,   27.0,   29.3,   29.0,   22.9,   23.0,   26.0,   26.5,   21.6,   17.3,   19.2,   20.5,   13.7,   13.7,   14.5,   13.3,   11.5,   12.0
1986/11/14 05:05,   16.5,   16.3,   17.1,   16.6,   16.3,   15.6,   17.0,   17.4,   17.6,   21.2,   22.7,   22.0,   22.5,   22.6,   24.0,   25.8,   26.2,   29.6,   35.8,   38.7,   40.0,   39.4,   38.1,   39.1,   39.7,   39.8,   41.6,   45.5,   46.5,   47.3,   49.9,   51.4,   53.5,   52.8,   51.7,   51.6,   50.7,   50.0,   50.2,   49.5,   48.4,   50.8,   51.7,   49.4,   49.1,   49.2,   52.3,   49.5,   46.7,   50.1,   50.0,   50.6,   56.2,   51.8,   55.3,   55.2,   55.2,   54.8,   55.3,   57.4,   58.6,   54.1,   52.6,   55.1,   58.2,  999.0,   56.8,   56.5,  999.0,   58.5,   58.4,   62.2,   64.5,   59.0,   62.2,   67.0,   58.7,   55.6,   56.5,   55.2,  999.0,  999.0,   48.9,   50.4,   51.5,   52.2,   41.8,   42.4,   42.0,   41.8,   43.2,   36.7,   37.8,   34.7,   32.8,   33.0,   35.1,   37.6,   38.0,   36.5,   35.0,   32.8,   28.8,   26.4,   29.7,   29.5,   22.1,   22.4,   24.8,   26.0,   19.6,   15.5,   18.7,   19.6,   14.5,   12.7,   12.9,   10.8,   12.2,   12.3
1986/11/14 05:15,   16.0,   16.0,   16.6,   15.9,   16.3,   15.2,   17.1,   16.8,   16.6,   19.8,   22.1,   21.6,   21.3,   22.9,   24.6,   25.3,   26.3,   29.7,   36.2,   39.8,   39.2,   38.6,   38.1,   38.9,   37.4,   38.9,   41.1,   43.3,   46.4,   49.0,   49.7,   51.1,   51.6,   52.0,   51.9,   51.7,   50.9,   51.1,   50.0,   48.7,   52.6,   52.7,   50.3,   49.0,   48.6,   51.8,   52.3,   45.9,   48.2,   50.3,   48.0,   52.0,   56.8,   50.5,   56.2,   56.8,   56.6,   55.5,   55.0,   55.3,   62.6,   54.2,   54.5,   56.3,   62.6,   52.1,   61.4,  999.0,   50.2,   57.7,   60.1,   63.8,   64.0,   59.6,   62.9,   63.7,   59.0,  999.0,   50.1,   57.7,  999.0,   46.7,   50.6,   50.4,   49.9,   49.1,   40.1,   41.7,   42.8,   41.2,   41.9,   36.1,   37.0,   34.9,   32.4,   32.2,   34.1,   35.9,   37.5,   37.7,   35.5,   33.8,   28.6,   25.1,   28.0,   29.6,   22.9,   24.8,   26.3,   25.8,   23.0,   18.5,   20.1,   19.7,   15.7,   13.7,   13.7,   13.0,   11.2,   10.5
1986/11/14 05:25,   16.0,   17.3,   17.5,   17.8,   16.5,   16.2,   17.4,   15.8,   16.8,   20.3,   22.3,   21.5,   21.8,   23.1,   24.3,   25.7,   27.7,   31.4,   37.0,   39.9,   39.9,   37.2,   37.8,   38.1,   37.2,   40.2,   42.4,   45.4,   49.1,   49.3,   49.9,   51.1,   53.0,   52.9,   52.6,   51.8,   49.4,   49.2,   47.4,   48.7,   51.0,   49.7,   49.2,   48.2,   47.4,   49.5,   52.3,   48.5,   49.1,   50.8,   48.2,   53.3,   54.1,   52.9,   56.4,   57.4,   59.1,   53.1,   55.5,   56.1,   62.0,   53.6,   53.5,   56.0,   62.7,  999.0,  999.0,  999.0,  999.0,   56.1,   60.9,   59.5,   62.9,   63.0,   61.4,   64.2,   56.0,   56.6,   50.6,   53.5,   62.6,   45.8,   50.0,   50.0,   50.9,   48.0,   41.9,   40.2,   41.6,   39.3,   40.9,   33.9,   35.7,   31.7,   31.3,   31.2,   33.4,   36.3,   36.4,   36.7,   36.8,   31.7,   32.7,   26.5,   26.7,   28.5,   24.5,   25.6,   26.6,   28.2,   21.9,   22.1,   22.4,   22.4,   16.9,   17.1,   16.5,   12.3,   11.4,    9.9
1986/11/14 05:35,   17.3,   18.5,   17.6,   16.8,   15.8,   17.2,   16.8,   15.8,   17.7,   21.3,   22.4,   21.7,   22.4,   23.6,   25.1,   25.9,   28.4,   32.8,   36.6,   39.5,   39.0,   38.2,   39.0,   36.8,   37.4,   39.7,   41.8,   44.0,   48.1,   48.3,   48.7,   50.0,   51.0,   51.4,   49.7,   49.6,   48.1,   47.9,   48.7,   48.0,   46.7,   47.9,   47.6,   48.1,   48.5,   51.7,   52.8,   47.5,   48.7,   50.2,   49.1,   53.5,   52.5,   55.6,   56.4,   57.8,   55.9,   54.1,   55.2,   56.0,   61.5,   50.0,   53.5,   56.5,   61.3,  999.0,  999.0,  999.0,   52.5,   57.9,   64.0,   60.5,   60.9,   65.5,   57.8,   62.4,   59.0,   56.4,   52.5,   53.6,   58.5,  999.0,  999.0,   46.8,   48.5,   49.5,   49.0,   40.9,   42.1,   40.2,   39.3,   36.3,   35.1,   29.7,   31.1,   30.7,   32.5,   35.6,   36.6,   37.2,   37.4,   31.4,   31.8,   27.1,   27.3,   28.0,   26.2,   27.4,   29.1,   29.8,   25.6,   25.3,   26.6,   23.3,   18.7,   18.7,   17.8,   12.0,    9.9,    9.5
1986/11/14 05:45,   17.1,   17.0,   16.9,   15.4,   14.8,   16.2,   15.4,   15.6,   18.0,   20.5,   22.1,   21.8,   22.4,   23.4,   24.6,   25.0,   28.2,   32.3,   36.6,   38.6,   39.8,   37.9,   37.4,   35.9,   38.0,   39.7,   42.0,   43.1,   46.5,   47.2,   47.9,   50.1,   50.5,   49.2,   47.4,   46.7,   47.8,   48.9,   49.1,   49.5,   49.4,   49.6,   49.8,   49.1,   48.2,   49.7,   51.3,   48.7,   49.4,   49.6,   51.5,   54.1,   53.8,   55.8,   56.6,   58.9,   53.4,   56.6,   54.6,   58.3,   52.9,   55.7,   54.2,   58.3,   58.9,  999.0,   57.0,  999.0,   54.8,   59.7,   61.6,   59.0,   60.7,   60.6,   63.7,   57.6,   61.0,   62.7,   52.4,   54.8,   63.3,   50.2,   51.5,   50.4,   46.8,   48.7,   47.9,   39.7,   42.3,   38.8,   39.8,   36.4,   35.4,   29.6,   31.3,   30.2,   30.7,   32.4,   35.7,   37.6,   36.1,   34.8,   31.3,   26.2,   27.1,   28.8,   26.6,   27.5,   29.1,   29.1,   24.5,   25.1,   24.3,   22.0,   17.3,   17.6,   16.9,   12.3,    9.3,    7.5
1986/11/14 05:55,   17.7,   16.8,   16.6,   15.2,   16.1,   16.8,   15.5,   15.8,   19.5,   20.4,   21.0,   20.8,   21.6,   23.0,   23.4,   24.7,   27.2,   31.4,   35.7,   39.2,   37.3,   38.0,   36.0,   35.6,   37.5,   40.9,   42.7,   43.9,   46.4,   48.2,   49.0,   49.4,   49.8,   47.0,   45.9,   46.2,   47.2,   48.8,   49.3,   48.8,   49.5,   49.0,   49.2,   49.8,   50.4,   49.1,   48.8,   51.6,   50.1,   51.2,   54.7,   56.0,   54.0,   55.9,   58.3,   58.9,   54.7,   57.3,   56.3,   53.8,   53.9,   57.8,   54.9,   57.5,   58.0,   58.0,  999.0,   54.0,   57.7,   57.5,   61.2,   57.7,   59.9,   60.3,   63.3,   55.2,   57.9,   61.5,   51.4,   53.5,   59.2,   46.7,   53.3,   47.6,   47.4,   49.0,   46.2,   40.6,   40.4,   38.5,   40.4,   35.4,   32.8,   32.0,   30.2,   29.5,   30.3,   31.5,   33.3,   35.4,   33.7,   31.7,   29.8,   24.3,   23.9,   26.4,   24.1,   25.9,   27.2,   26.1,   23.3,   23.1,   23.0,   21.0,   16.3,   15.0,   15.6,   12.2,    9.4,    9.2
1986/11/14 06:05,   17.2,   16.5,   15.8,   14.6,   16.5,   16.8,   16.0,   17.2,   19.9,   20.1,   21.2,   21.5,   21.7,   22.7,   22.5,   23.8,   26.7,   30.3,   34.9,   38.9,   36.7,   36.7,   35.0,   35.4,   36.3,   38.8,   40.7,   43.2,   46.6,   49.2,   50.6,   50.1,   48.2,   46.8,   45.9,   45.3,   46.7,   48.3,   47.0,   46.1,   47.9,   48.9,   49.9,   49.3,   48.0,   47.1,   49.7,   53.5,   48.5,   49.0,   53.9,   55.7,   52.7,   54.9,   56.5,   58.5,   56.3,   56.0,   56.4,   52.8,   55.7,   55.9,   56.4,   55.5,   57.2,   56.6,   51.6,   56.0,   54.3,   55.8,   59.5,   58.6,   56.1,   61.8,   59.7,   59.6,   57.4,   58.0,   53.4,   52.9,   59.1,   46.8,   50.7,   51.0,   47.5,   50.0,   47.1,   41.8,   41.2,   38.5,   40.9,   37.7,   34.6,   33.7,   31.3,   29.0,   30.2,   30.6,   33.8,   36.0,   31.6,   29.7,   27.8,   25.6,   23.0,   23.1,   23.1,   23.8,   25.3,   22.7,   20.8,   22.1,   21.4,   16.5,   15.8,   15.5,   16.0,   14.1,   12.0,    9.8
1986/11/14 06:15,   17.7,   17.9,   14.4,   14.6,   15.8,   16.7,   16.0,   18.4,   19.6,   19.9,   21.0,   22.0,   21.3,   22.6,   22.4,   23.2,   26.6,   30.3,   34.7,   38.4,   35.7,   36.0,   34.8,   34.9,   37.0,   39.0,   40.6,   42.9,   46.0,   47.5,   50.2,   50.8,   46.7,   44.9,   44.4,   45.4,   48.2,   47.8,   48.0,   47.2,   47.6,   47.4,   48.1,   45.8,   46.6,   47.4,   51.2,   46.2,   48.4,   46.7,   51.5,   53.6,   55.2,   55.5,   55.1,   57.6,   58.0,   55.6,   56.8,   56.4,   52.8,   54.2,   57.5,   54.1,   57.6,   60.5,   56.9,   50.8,   55.9,   59.9,   61.2,   56.3,   61.4,   60.3,   59.2,   55.1,   58.3,   56.3,   53.3,   53.0,   60.5,  999.0,   49.5,   51.1,   46.9,   50.8,   45.8,   43.4,   40.8,   40.3,   39.4,   39.7,   35.2,   36.4,   30.5,   29.4,   31.0,   30.5,   34.6,   36.1,   31.9,   30.4,   29.3,   24.0,   22.5,   21.8,   24.1,   23.0,   24.7,   22.6,   20.3,   21.4,   20.7,   16.5,   15.8,   15.3,   15.9,   14.7,   12.6,   10.7
1986/11/14 06:25,   16.5,   18.6,   15.6,   15.4,   16.2,   16.4,   15.9,   17.4,   19.7,   20.0,   20.7,   20.8,   21.1,   21.9,   21.7,   23.3,   26.7,   29.3,   33.6,   37.7,   36.4,   35.1,   33.4,   33.7,   35.9,   39.0,   42.1,   44.5,   47.3,   48.8,   51.0,   49.4,   46.2,   44.4,   44.1,   46.7,   47.9,   47.2,   46.5,   46.8,   46.9,   45.9,   46.6,   47.8,   47.9,   45.1,   49.2,   47.1,   48.2,   47.9,   53.0,   52.9,   57.0,   55.7,   54.4,   55.7,   59.1,   54.4,   55.7,   57.1,   54.3,   52.6,   57.0,   56.6,   57.0,   57.8,   59.8,   55.5,   58.2,   61.8,  999.0,   58.7,   62.6,   58.7,   58.0,   58.1,   57.6,   58.2,   53.4,   56.0,  999.0,  999.0,   50.2,   47.0,   47.0,   51.3,   45.1,   40.4,   39.1,   40.9,   37.5,   37.2,   35.2,   33.7,   30.3,   28.2,   29.2,   29.2,   33.1,   35.0,   33.2,   31.3,   28.8,   25.2,   21.8,   21.6,   24.1,   23.0,   24.9,   23.7,   20.9,   20.7,   21.1,   15.7,   14.4,   14.5,   14.8,   13.7,   12.5,   10.0
1986/11/14 06:35,   16.3,   16.1,   14.4,   14.1,   14.8,   15.8,   15.8,   17.4,   19.2,   20.1,   20.6,   20.6,   20.3,   20.8,   21.9,   22.5,   27.1,   30.7,   36.3,   37.9,   36.8,   34.2,   33.4,   33.7,   36.5,   39.3,   41.4,   43.3,   46.0,   48.0,   49.8,   47.9,   47.3,   44.7,   46.0,   48.0,   47.3,   46.9,   46.8,   47.0,   46.3,   44.9,   46.6,   48.2,   47.5,   43.7,   48.1,   47.9,   46.8,   50.0,   54.5,   53.6,   56.7,   54.4,   54.1,   55.7,   55.9,   55.5,   55.0,   57.6,   55.0,   52.9,   56.9,   55.8,   57.8,   57.7,   56.6,   56.0,   59.1,   61.1,   61.0,   59.1,   61.6,   55.7,   56.9,   62.1,   56.6,   58.5,   55.3,   59.0,  999.0,  999.0,   52.7,   46.2,   47.8,   54.1,   42.9,   40.2,   41.0,   40.7,   37.7,   39.9,   36.5,   34.2,   31.5,   28.1,   30.2,   30.9,   34.6,   36.4,   37.5,   32.5,   28.3,   26.8,   20.9,   22.2,   23.4,   22.4,   23.9,   23.6,   19.7,   19.7,   21.2,   14.7,   14.0,   14.7,   14.9,   14.2,   13.0,   10.4
1986/11/14 06:45,   15.9,   16.0,   15.1,   14.8,   14.8,   16.2,   16.1,   16.7,   19.7,   19.8,   20.9,   20.5,   20.3,   20.9,   22.2,   23.0,   25.9,   31.0,   35.2,   37.7,   35.8,   33.6,   32.7,   34.0,   37.6,   40.7,   43.7,   46.5,   47.0,   47.1,   48.1,   48.7,   48.0,   46.1,   45.9,   48.5,   48.4,   46.9,   45.6,   46.4,   47.5,   46.8,   47.9,   46.9,   44.7,   44.6,   49.0,   46.8,   47.1,   52.2,   53.6,   52.8,   56.5,   54.7,   55.3,   56.6,   57.1,   54.7,   55.7,   58.6,   53.7,   53.5,   57.5,   56.8,   57.1,   59.0,   54.9,   56.3,   59.4,   61.3,   57.3,   60.7,   62.3,   57.9,   54.8,   59.9,   62.5,   57.2,   54.4,   59.4,   62.4,   49.9,   49.3,   51.2,   47.9,   52.2,   42.9,   41.1,   41.5,   40.0,   37.9,   41.4,   34.6,   35.0,   32.3,   28.5,   31.0,   35.0,   38.4,   38.8,   39.9,   33.9,   32.5,   28.3,   23.1,   22.9,   23.3,   22.0,   23.2,   22.2,   19.3,   19.1,   19.8,   14.5,   13.7,   13.8,   15.0,   14.9,   12.7,   10.6
1986/11/14 06:55,   15.8,   16.5,   16.0,   15.5,   15.9,   16.4,   16.1,   17.4,   19.8,   20.8,   20.9,   21.0,   20.2,   21.4,   22.6,   22.6,   26.3,   30.3,   35.3,   38.0,   35.4,   34.8,   31.6,   33.4,   36.4,   38.0,   40.3,   42.6,   45.0,   45.5,   47.5,   48.1,   45.4,   44.5,   47.6,   47.2,   47.1,   45.8,   45.5,   46.9,   47.1,   46.0,   45.0,   43.9,   46.2,   46.6,   46.8,   47.6,   49.7,   53.7,   52.9,   53.6,   56.5,   53.7,   54.1,   55.2,   58.0,   54.0,   55.8,   58.6,   53.0,   54.0,   57.4,   59.9,   53.7,   58.2,   56.7,   57.9,  999.0,  999.0,   59.6,   58.5,   62.1,   60.6,   62.0,   54.1,   58.1,   57.4,   54.9,   57.1,  999.0,  999.0,   49.9,   46.0,   48.0,   52.5,   42.3,   40.9,   39.9,   40.3,   35.7,   39.0,   39.1,   33.4,   33.6,   26.9,   30.2,   33.5,   36.9,   38.3,   39.1,   33.2,   34.1,   29.7,   24.1,   23.3,   23.0,   24.1,   23.0,   21.6,   19.3,   20.8,   18.2,   13.9,   13.7,   14.7,   15.8,   14.7,   12.6,    9.8
1986/11/14 07:05,   15.3,   15.8,   16.1,   15.3,   16.0,   16.4,   16.0,   18.1,   20.0,   20.5,   20.3,   20.4,   19.4,   20.5,   22.0,   21.9,   25.2,   31.4,   36.0,   37.1,   35.0,   33.8,   31.3,   32.8,   35.5,   38.0,   40.7,   43.1,   43.6,   43.7,   45.2,   47.3,   47.5,   43.7,   47.2,   48.1,   46.1,   46.5,   46.0,   45.9,   45.7,   45.7,   45.4,   45.8,   44.3,   45.7,   48.8,   48.5,   49.3,   51.8,   50.4,   53.1,   55.9,   53.8,   53.2,   53.9,   56.6,   53.2,   54.2,   58.0,   49.5,   53.9,   56.9,   61.0,   53.9,   57.7,   56.5,   59.4,  999.0,  999.0,   56.7,   61.7,   59.2,   63.0,   60.7,   53.9,   59.3,   58.2,  999.0,  999.0,  999.0,  999.0,   52.4,   44.2,   46.8,   52.5,   45.1,   40.5,   40.2,   42.3,   35.8,   38.7,   37.4,   33.4,   33.0,   27.7,   29.6,   32.9,   35.8,   37.0,   36.6,   31.8,   33.2,   27.9,   28.2,   20.6,   22.7,   23.3,   22.2,   21.9,   21.7,   20.8,   17.3,   15.7,   17.0,   18.0,   18.1,   14.7,   11.1,    9.5
1986/11/14 07:15,   15.3,   15.2,   15.9,   15.3,   16.4,   16.3,   16.4,   18.7,   19.7,   20.1,   19.9,   19.6,   21.0,   22.1,   21.9,   23.3,   26.7,   32.3,   36.6,   37.8,   34.3,   31.9,   32.3,   33.4,   36.8,   40.2,   42.9,   44.3,   45.4,   45.0,   45.0,   46.4,   45.8,   45.1,   47.5,   50.9,   48.0,   47.3,   46.4,   46.4,   44.5,   44.1,   44.8,   45.3,   44.5,   47.2,   47.1,   49.2,   50.3,   50.7,   52.4,   52.4,   55.5,   56.5,   53.3,   54.1,   56.4,   59.7,   54.0,   56.7,   50.2,   53.2,   56.5,   60.9,   53.1,   56.8,   58.2,   62.0,  999.0,  999.0,   54.3,   60.5,   60.1,   63.1,   65.6,   55.1,   58.6,   60.4,   57.4,  999.0,   58.2,  999.0,   49.6,   49.8,   47.0,   51.8,   46.1,   41.3,   40.4,   41.4,   37.3,   39.7,   35.7,   38.0,   29.4,   28.5,   31.7,   34.3,   36.6,   37.6,   35.4,   37.6,   30.6,   29.0,   24.8,   19.5,   20.8,   22.3,   20.0,   20.4,   19.4,   18.1,   14.9,   14.3,   14.2,   16.8,   16.8,   15.4,   14.2,   11.3
1986/11/14 07:25,   15.5,   15.2,   15.8,   15.2,   16.6,   15.4,   15.9,   18.6,   20.2,   19.7,   19.1,   19.6,   21.0,   20.9,   22.2,   24.2,   28.1,   32.7,   37.4,   38.2,   35.0,   31.9,   31.7,   33.9,   36.7,   39.2,   42.6,   43.8,   45.3,   46.3,   46.1,   46.0,   46.8,   44.4,   48.7,   49.8,   47.2,   47.8,   46.7,   45.3,   45.0,   45.0,   44.8,   45.7,   47.1,   48.1,   50.7,   48.6,   53.3,   53.5,   52.2,   51.8,   53.5,   55.8,   55.3,   54.8,   55.6,   55.5,   56.1,   57.4,   48.8,   52.5,   56.0,   60.3,   51.7,   55.6,   56.5,   60.4,  999.0,  999.0,  999.0,   57.0,   60.8,   63.4,   64.0,   56.6,   61.5,   65.5,   53.9,   55.3,   59.2,  999.0,   50.9,   47.3,   50.6,   51.3,   48.3,   39.1,   38.9,   41.8,   37.8,   41.4,   34.0,   35.2,   29.7,   27.7,   32.5,   34.3,   35.5,   36.9,   33.3,   34.0,   31.6,   27.3,   24.4,   18.3,   20.1,   20.9,   20.1,   20.3,   18.0,   21.0,   14.3,   15.2,   18.3,   20.0,   17.6,   16.9,   12.9,    9.7
1986/11/14 07:35,   15.3,   14.7,   15.0,   14.8,   15.3,   15.1,   15.7,   17.4,   19.0,   18.7,   18.8,   19.3,   20.0,   20.5,   21.9,   24.7,   29.0,   32.9,   37.0,   36.8,   36.7,   30.6,   31.7,   33.5,   36.6,   41.0,   43.6,   44.2,   43.7,   45.8,   47.7,   47.6,   46.5,   43.6,   47.5,   48.8,   46.2,   46.2,   47.6,   47.1,   44.7,   44.5,   45.1,   44.1,   46.6,   49.2,   50.7,   48.5,   52.4,   52.3,   53.2,   51.9,   55.6,   56.1,   54.4,   55.0,   55.1,   54.6,   54.6,   55.3,   49.5,   53.0,   56.7,   59.4,   53.2,   56.5,   58.1,   61.7,  999.0,  999.0,   60.0,   59.8,   58.9,   62.3,   61.2,   61.2,   65.6,  999.0,   57.4,   55.9,  999.0,  999.0,   50.5,   48.2,   51.2,   51.1,   46.7,   40.6,   38.6,   42.0,   36.5,   40.4,   36.1,   32.7,   33.4,   27.9,   32.1,   34.1,   35.6,   36.2,   33.9,   34.2,   32.9,   29.7,   25.6,   18.8,   20.1,   21.6,   20.0,   19.4,   16.6,   19.2,   13.4,   14.9,   16.3,   19.4,   17.3,   16.3,   12.4,   10.8
1986/11/14 07:45,   15.6,   14.6,   15.3,   15.5,   15.2,   15.1,   15.6,   17.7,   18.8,   18.4,   17.9,   19.0,   19.7,   19.6,   22.0,   24.2,   28.5,   32.8,   37.0,   35.4,   35.1,   30.3,   31.8,   34.2,   37.6,   42.4,   44.0,   45.3,   46.0,   46.9,   48.6,   46.8,   45.9,   43.9,   48.7,   49.7,   45.8,   46.8,   47.9,   45.9,   44.7,   43.7,   43.5,   44.5,   46.2,   48.8,   49.8,   49.8,   51.6,   52.0,   53.4,   54.6,   56.1,   55.8,   54.3,   54.4,   54.8,   55.4,   55.2,   56.5,   50.1,   52.4,   58.3,   57.3,   55.1,   55.8,   57.9,   63.2,  999.0,  999.0,  999.0,   58.0,   63.5,   61.3,   56.9,   62.4,   54.9,   54.5,   57.7,   58.5,  999.0,  999.0,   51.7,   48.5,   50.9,   51.1,   48.2,   44.2,   40.2,   42.9,   38.8,   41.4,   39.2,   35.5,   35.8,   29.9,   33.7,   35.4,   38.0,   36.8,   37.4,   37.4,   35.2,   32.4,   28.3,   19.4,   21.4,  999.0,   21.2,   22.3,  999.0,   19.4,   14.7,   14.0,   13.6,   13.9,   13.5,   13.2,   11.2,   10.2
1986/11/14 07:55,   15.8,   14.8,   14.9,   15.1,   15.1,   15.5,   15.2,   17.4,   18.9,   18.2,   17.5,   19.1,   19.5,   18.8,   21.3,   24.0,   28.3,   32.3,   35.7,   34.2,   34.5,   30.6,   32.3,   35.3,   39.4,   42.8,   44.5,   44.5,   44.4,   45.5,   47.0,   47.2,   47.0,   44.5,   46.6,   50.6,   49.3,   47.3,   46.5,   45.7,   45.8,   43.5,   44.2,   47.3,   47.1,   48.0,   48.2,   51.0,   52.4,   52.7,   54.0,   56.4,   55.4,   54.2,   55.0,   54.2,   53.9,   54.7,   53.5,   54.5,   51.2,   52.0,   56.9,   54.1,   53.8,   59.1,  999.0,  999.0,  999.0,  999.0,   55.7,   59.3,   64.8,   62.8,   56.2,   62.6,  999.0,   55.4,   58.3,  999.0,   54.7,  999.0,   51.7,   48.5,   53.2,   53.7,   51.9,   45.8,   41.4,   43.6,   40.6,   43.8,   40.5,   36.9,   38.3,   31.1,   34.7,   36.8,   39.1,   38.8,   37.7,   38.3,   35.7,   32.6,   27.0,   20.4,   23.1,  999.0,  999.0,   18.4,   18.7,   21.0,   14.2,   14.7,   14.1,   15.6,   17.3,   15.0,   12.2,   10.8
1986/11/14 08:05,  999.0,  999.0,  999.0,  999.0,  999.0,  999.0,  999.0,  999.0,  999.0,  999.0,  999.0,  999.0,  999.0,  999.0,  999.0,  999.0,  999.0,  999.0,  999.0,  999.0,  999.0,  999.0,   32.6,   35.9,   39.5,   42.6,   44.2,   44.9,   45.5,   46.5,   45.8,   46.8,   47.7,   47.6,   43.0,   49.5,   47.7,   48.2,   47.8,   43.8,   43.6,   46.9,   47.4,   48.8,   48.1,   46.6,   47.3,   49.6,   50.9,   51.5,   50.4,   52.2,   55.2,   54.8,   53.9,   52.4,   52.7,   52.6,   53.3,   54.7,   53.8,   52.7,   56.4,   54.8,   51.7,   58.7,  999.0,  999.0,  999.0,  999.0,   55.9,   60.3,   66.0,   60.6,   56.3,   63.8,   54.4,   58.8,   53.9,   55.5,   54.6,  999.0,  999.0,   52.6,   47.8,   51.3,   53.3,   49.9,   41.1,   41.4,   40.2,   43.4,   37.6,   37.7,   36.6,   30.4,   33.8,   35.3,   38.6,   35.6,   35.8,   35.1,   33.7,   29.8,   23.5,   19.0,   20.8,   19.8,   23.0,  999.0,   15.5,   18.3,   12.0,   12.7,   14.5,   19.0,   15.8,   16.2,   13.0,   10.2
1986/11/14 08:15,  999.0,  999.0,  999.0,  999.0,  999.0,  999.0,  999.0,  999.0,  999.0,  999.0,  999.0,  999.0,  999.0,  999.0,  999.0,  999.0,  999.0,  999.0,  999.0,  999.0,  999.0,  999.0,   31.0,   34.7,   38.7,   41.0,   42.6,   43.3,   44.8,   45.0,   47.5,   47.1,   46.7,   47.3,   44.4,  999.0,   50.5,   47.7,   45.9,   44.2,   43.8,   46.1,   46.4,   47.0,   46.5,   46.5,   48.4,   52.1,   49.6,   50.9,   52.0,   52.6,   53.6,   54.4,   54.6,   53.4,   52.7,   51.6,   51.5,   53.7,   50.9,   56.2,   58.0,   51.1,   55.1,   61.7,   56.9,  999.0,  999.0,   56.7,   55.3,   62.7,   68.0,   59.9,   55.5,   61.6,  999.0,   55.9,   55.2,   54.1,   57.2,  999.0,  999.0,   49.1,   48.3,   50.2,   53.4,   48.5,   41.2,   40.5,   39.2,   42.9,   37.2,   37.5,   36.6,   31.6,   32.9,   35.1,   35.2,   35.9,   34.9,   32.8,   32.8,   26.4,   22.7,   18.6,   20.5,   21.6,   21.1,   20.6,   17.0,   19.7,   14.2,   13.6,   16.2,   16.6,   18.3,   14.5,   13.2,   10.6
1986/11/14 08:25,  999.0,  999.0,  999.0,  999.0,  999.0,  999.0,  999.0,  999.0,  999.0,  999.0,  999.0,  999.0,  999.0,  999.0,  999.0,  999.0,  999.0,  999.0,  999.0,  999.0,  999.0,  999.0,   31.3,   34.9,   38.4,   41.9,   42.4,   42.7,   44.0,   44.8,   45.6,   46.9,   49.0,   48.4,   49.5,   45.8,   48.2,   49.5,   45.9,   45.4,   44.6,   45.1,   47.2,   47.4,   45.9,   46.5,   48.9,   51.7,   51.7,   52.6,   54.0,   55.2,   53.8,   53.4,   53.4,   52.1,   52.7,   52.8,   51.7,   51.3,   54.8,   60.2,   51.2,   52.6,   57.9,   60.1,  999.0,  999.0,  999.0,   60.1,   54.5,   61.6,   67.5,   59.2,   56.4,   61.2,   57.4,   54.9,   55.7,   49.5,   55.4,   50.1,   53.1,   46.7,   47.9,   47.0,   50.6,   51.3,   42.8,   38.5,   38.3,   40.7,   36.0,   35.8,   33.4,   31.0,   30.2,   32.3,   32.3,   31.2,   31.4,   28.9,   27.2,   24.1,   19.9,   16.7,   18.7,   19.8,   18.8,   17.1,   16.2,   18.2,   13.0,   13.6,   15.4,   15.0,   13.0,   10.8,   12.3,   12.0
1986/11/14 08:35,  999.0,  999.0,  999.0,  999.0,  999.0,  999.0,  999.0,  999.0,  999.0,  999.0,  999.0,  999.0,  999.0,  999.0,  999.0,  999.0,  999.0,  999.0,  999.0,  999.0,  999.0,  999.0,  999.0,   34.8,   37.3,   39.1,   41.2,   43.7,   42.9,   43.5,   43.4,   45.7,   47.3,   47.3,   47.5,   44.6,   47.5,   49.5,   46.5,   44.9,   43.4,   43.9,   47.3,   46.0,   45.9,   49.6,   49.0,   51.3,   50.2,   52.7,   53.1,   54.8,   54.2,   53.9,   53.1,   53.2,   53.0,   52.2,   52.2,   51.6,   57.4,   55.8,   53.0,   51.7,   56.4,   59.8,   61.1,  999.0,  999.0,  999.0,   53.3,   58.5,   65.0,   53.5,   58.9,   61.2,   53.6,   56.5,   46.9,   47.9,   51.0,   52.6,   52.5,   46.8,   48.8,   45.6,   50.3,   51.8,   41.7,   38.0,   37.4,   39.0,   37.6,   35.1,   31.6,   34.4,   32.0,   30.4,   32.6,   34.4,   33.1,   32.1,   29.9,   27.0,   24.5,   19.5,   21.5,   24.0,   21.9,   22.1,   19.9,   21.6,   15.8,   15.4,   14.9,   14.7,   14.9,   13.3,   13.2,   11.3
1986/11/14 08:45,  999.0,  999.0,  999.0,  999.0,  999.0,  999.0,  999.0,  999.0,  999.0,  999.0,  999.0,  999.0,  999.0,  999.0,  999.0,  999.0,  999.0,  999.0,  999.0,  999.0,  999.0,  999.0,  999.0,   34.0,   37.3,   39.9,   39.8,   41.6,   43.0,   43.7,   44.7,   44.9,   44.9,   48.5,   44.8,   44.6,   45.6,   47.9,   46.9,   43.6,   43.8,   45.6,   46.1,   46.1,   47.7,   47.6,   48.8,   51.0,   50.9,   51.4,   51.4,   54.1,   54.1,   55.4,   55.6,   54.8,   52.8,   51.8,   47.4,   53.0,   57.2,   52.7,   51.9,   54.7,   58.2,   61.0,  999.0,  999.0,  999.0,  999.0,   52.7,   59.2,   60.4,  999.0,   58.4,   61.7,   53.8,   57.1,  999.0,   46.6,   49.9,   51.7,   52.4,   49.0,   47.5,   44.8,   47.5,   46.9,   46.3,   37.2,   38.3,   38.6,   38.2,   34.6,   34.2,   34.4,   29.9,   29.5,   31.9,   35.2,   35.4,   34.4,   32.2,   29.1,   24.3,   22.7,   25.0,   26.7,   24.8,   26.0,   23.9,   25.2,   17.7,   18.0,   16.3,   15.6,   14.4,   14.6,   14.2,   14.4
1986/11/14 08:55,  999.0,  999.0,  999.0,  999.0,  999.0,  999.0,  999.0,  999.0,  999.0,  999.0,  999.0,  999.0,  999.0,  999.0,  999.0,  999.0,  999.0,  999.0,  999.0,  999.0,  999.0,  999.0,  999.0,  999.0,  999.0,  999.0,  999.0,  999.0,  999.0,  999.0,  999.0,  999.0,  999.0,  999.0,  999.0,  999.0,  999.0,  999.0,  999.0,  999.0,  999.0,  999.0,  999.0,  999.0,  999.0,  999.0,  999.0,  999.0,  999.0,  999.0,  999.0,  999.0,  999.0,  999.0,  999.0,  999.0,  999.0,  999.0,  999.0,  999.0,  999.0,  999.0,  999.0,  999.0,  999.0,  999.0,  999.0,  999.0,  999.0,  999.0,  999.0,  999.0,  999.0,  999.0,  999.0,  999.0,  999.0,  999.0,  999.0,  999.0,  999.0,  999.0,  999.0,  999.0,  999.0,  999.0,  999.0,  999.0,  999.0,  999.0,  999.0,  999.0,  999.0,  999.0,  999.0,  999.0,  999.0,  999.0,  999.0,  999.0,  999.0,  999.0,  999.0,  999.0,  999.0,  999.0,  999.0,  999.0,  999.0,  999.0,  999.0,  999.0,  999.0,  999.0,  999.0,  999.0,  999.0,  999.0,  999.0,  999.0
1986/11/14 09:05,  999.0,  999.0,  999.0,  999.0,  999.0,  999.0,  999.0,  999.0,  999.0,  999.0,  999.0,  999.0,  999.0,  999.0,  999.0,  999.0,  999.0,  999.0,  999.0,  999.0,  999.0,  999.0,   31.7,   34.5,   35.4,   37.3,   38.8,   39.7,   42.1,   43.3,   42.9,   43.7,   44.4,   47.6,   46.1,   42.7,   44.7,   46.9,   45.2,   45.1,   46.3,   44.1,   44.9,   47.5,   49.2,   49.1,   49.4,   48.6,   49.5,   51.1,   51.9,   54.0,   54.9,   54.0,   54.2,   52.7,   52.6,   50.8,   51.6,   54.9,   55.3,   53.6,   58.1,   59.0,  999.0,  999.0,  999.0,  999.0,  999.0,  999.0,   58.2,   61.7,   61.2,   57.7,   57.9,   62.4,   53.7,   54.7,  999.0,   51.3,   49.7,   50.8,   48.6,   50.6,   44.3,   46.4,   50.0,   48.5,   43.0,   40.5,   39.7,   39.6,   42.6,   38.1,   37.9,   38.2,   34.3,   33.1,   33.5,   34.4,   34.7,   33.6,   30.9,   29.7,   27.2,   23.2,   25.9,   26.3,   24.6,   24.0,   23.5,   26.2,   28.5,   19.2,   19.2,   15.4,   15.7,   15.6,   15.6,   11.9
1986/11/14 09:15,  999.0,  999.0,  999.0,  999.0,  999.0,  999.0,  999.0,  999.0,  999.0,  999.0,  999.0,  999.0,  999.0,  999.0,  999.0,  999.0,  999.0,  999.0,  999.0,  999.0,  999.0,  999.0,   30.9,   32.9,   35.5,   36.4,   37.0,   38.9,   41.0,   42.0,   42.8,   43.6,   45.2,   46.6,   45.4,   44.2,   42.8,   46.9,   44.4,   45.3,   45.4,   46.4,   47.5,   48.0,   47.5,   48.4,   49.1,   49.1,   49.2,   51.1,   50.6,   52.9,   54.4,   53.9,   55.4,   55.5,   54.6,   52.6,   53.3,   51.2,   54.7,   53.9,   57.8,   61.6,   58.2,  999.0,  999.0,  999.0,  999.0,   55.5,   61.6,   59.9,   63.2,   58.0,   58.4,   60.3,   55.6,   58.4,   52.3,   51.3,   48.7,   51.7,   50.1,   51.3,  999.0,   45.2,   49.1,   46.3,   43.3,   38.6,   35.9,   35.7,   38.5,   33.0,   33.1,   33.8,  999.0,  999.0,   30.2,   31.3,   33.8,   31.0,   28.1,   24.6,   24.1,   19.3,   22.2,   21.8,   22.9,   22.0,   21.0,   23.3,   25.8,   20.5,   16.1,   13.3,   14.7,   14.3,   15.9,   12.0
1986/11/14 09:25,  999.0,  999.0,  999.0,  999.0,  999.0,  999.0,  999.0,  999.0,  999.0,  999.0,  999.0,  999.0,  999.0,  999.0,  999.0,  999.0,  999.0,  999.0,  999.0,  999.0,  999.0,  999.0,   30.2,   31.4,   35.3,   36.8,   36.8,   39.1,   41.5,   42.8,   43.1,   43.6,   43.3,   45.6,   44.7,   45.3,   42.2,   44.7,   46.7,   46.0,   47.5,   47.0,   49.7,   45.3,   49.1,   49.5,   48.4,   49.3,   51.6,   53.4,   52.1,   53.4,   54.2,   53.6,   54.1,   54.8,   55.1,   53.2,   51.4,   51.5,   56.7,   53.5,   57.7,   61.5,   60.4,  999.0,  999.0,  999.0,  999.0,   59.7,   63.3,   60.2,   61.8,   62.6,   57.2,   60.4,   55.8,   55.6,   49.6,   51.7,   51.4,   49.0,   51.2,   52.3,   49.3,   43.9,   47.6,   44.8,   42.2,   38.5,   38.0,   35.8,   38.8,   37.2,   38.1,   34.7,   37.7,   38.4,   34.4,   36.7,   37.1,   34.4,   32.9,   32.4,   31.6,   26.2,   27.3,   25.8,   27.4,   24.6,   21.6,   22.5,   23.1,   17.2,   12.5,   12.9,   14.5,   15.3,   16.7,   13.6
1986/11/14 09:35,  999.0,  999.0,  999.0,  999.0,  999.0,  999.0,  999.0,  999.0,  999.0,  999.0,  999.0,  999.0,  999.0,  999.0,  999.0,  999.0,  999.0,  999.0,  999.0,  999.0,  999.0,  999.0,  999.0,   30.4,   34.0,   36.2,   35.8,   38.1,   40.0,   41.3,   42.3,   42.6,   43.4,   45.2,   44.4,   44.6,   41.5,   45.5,   46.5,   46.3,   47.8,   48.1,   45.9,   47.7,   50.1,   49.4,   49.7,   50.1,   51.4,   53.3,   52.4,   51.9,   51.4,   53.0,   52.1,   53.4,   53.4,   52.5,   50.9,   51.5,   56.4,   51.1,   56.2,   60.3,   59.7,  999.0,   49.3,  999.0,   60.8,  999.0,   63.3,   56.2,   59.5,   60.1,   57.2,   58.7,   59.1,   58.2,   53.7,   53.4,   51.1,   47.9,   48.5,   50.5,   47.7,   43.1,   45.5,   48.1,   41.0,   37.0,   36.3,   38.9,   36.0,   37.2,   36.7,   35.1,   35.9,   36.8,   34.1,   36.2,   38.9,   34.5,   32.5,   31.2,   27.2,   27.2,   27.5,   26.9,   27.0,   25.0,   21.8,   23.3,   22.6,   18.5,   14.9,   15.7,   15.2,   15.7,   15.1,   13.4
1986/11/14 09:45,  999.0,  999.0,  999.0,  999.0,  999.0,  999.0,  999.0,  999.0,  999.0,  999.0,  999.0,  999.0,  999.0,  999.0,  999.0,  999.0,  999.0,  999.0,  999.0,  999.0,  999.0,  999.0,   28.5,   31.6,   35.1,   36.3,   35.3,   37.3,   38.7,   41.6,   43.0,   43.6,   44.6,   44.6,   45.7,   45.3,   44.7,   42.4,   45.7,   47.1,   48.1,   45.3,   42.8,   50.3,   50.0,   50.8,   50.6,   51.0,   49.8,   50.8,   52.7,   50.6,   52.5,   53.3,   53.3,   54.6,   55.0,   51.4,   48.3,   52.1,   56.9,   49.6,   54.3,   59.8,   58.3,   57.7,  999.0,  999.0,   63.2,   53.8,   60.6,   60.9,   59.4,   59.6,   61.2,   57.9,   60.4,   49.4,   53.8,   54.8,   52.5,   47.7,   49.4,   51.3,   46.5,  999.0,   44.2,   47.2,   42.0,   38.8,   34.6,   37.5,   37.1,   36.7,   37.0,   36.8,   37.2,   38.9,   35.5,   38.7,   39.4,   33.9,   34.9,   29.4,   26.3,   27.0,   27.0,   25.3,   27.6,   25.9,   23.1,   24.0,   25.4,   20.3,   16.4,   16.4,   16.6,   17.0,   16.0,   15.3
1986/11/14 09:55,  999.0,  999.0,  999.0,  999.0,  999.0,  999.0,  999.0,  999.0,  999.0,  999.0,  999.0,  999.0,  999.0,  999.0,  999.0,  999.0,  999.0,  999.0,  999.0,  999.0,  999.0,  999.0,   28.0,   31.7,   35.0,   36.9,   36.6,   37.5,   40.0,   42.2,   43.7,   43.2,   44.8,   45.1,   44.3,   44.3,   44.9,   41.4,   45.3,   48.8,   46.5,   44.7,   47.7,   50.4,   50.3,   53.3,   51.4,   52.1,   50.9,   52.8,   51.8,   51.9,   52.4,   53.0,   53.7,   56.0,   53.3,   54.4,   49.8,   51.7,   55.7,   53.3,   52.6,   58.8,   57.1,   59.2,  999.0,  999.0,  999.0,   55.6,   61.0,   61.0,   62.0,   60.2,   57.8,   59.6,   63.2,  999.0,   52.0,   56.3,   55.8,   52.4,   47.9,   48.2,   51.6,   39.5,   44.5,   49.1,   43.8,   37.3,   36.1,   36.3,   35.9,   40.5,   37.8,   38.5,   36.7,   38.6,   35.5,   39.6,   37.1,   34.4,   34.1,   30.2,   26.8,   28.7,   30.3,   25.8,   27.1,   25.0,   22.8,   23.3,   24.7,   17.2,   15.0,   14.1,   15.5,   15.5,   16.0,   16.5
1986/11/14 10:05,  999.0,  999.0,  999.0,  999.0,  999.0,  999.0,  999.0,  999.0,  999.0,  999.0,  999.0,  999.0,  999.0,  999.0,  999.0,  999.0,  999.0,  999.0,  999.0,  999.0,  999.0,  999.0,   28.7,   32.2,   35.2,   36.6,   38.0,   38.1,   40.3,   42.8,   44.3,   43.3,   45.2,   43.8,   45.2,   44.7,   42.5,   44.9,   49.5,   47.4,   45.4,   45.8,   47.9,   49.1,   50.2,   52.2,   50.5,   52.3,   53.2,   55.4,   52.1,   51.5,   53.3,   54.4,   55.4,   54.7,   52.8,  999.0,   50.0,   53.0,   55.4,   51.3,   53.5,   60.0,   58.5,   58.5,  999.0,  999.0,  999.0,   56.4,   61.3,   60.8,   62.5,   59.4,   59.4,   60.8,   60.5,  999.0,   52.7,   56.0,   55.4,   50.9,   48.7,   45.0,   52.0,   40.5,   45.1,   48.7,   43.3,   39.0,   36.2,   36.7,   37.1,   40.8,   39.2,   40.2,   39.1,   34.3,   39.2,   43.9,   36.5,   34.2,   31.3,   28.4,   25.7,   27.8,   27.5,   25.8,   26.9,   24.3,   21.7,   25.5,   25.7,   18.3,   15.5,   15.5,   16.4,   16.5,   16.2,   15.5
1986/11/14 10:15,  999.0,  999.0,  999.0,  999.0,  999.0,  999.0,  999.0,  999.0,  999.0,  999.0,  999.0,  999.0,  999.0,  999.0,  999.0,  999.0,  999.0,  999.0,  999.0,  999.0,  999.0,  999.0,   28.9,   31.6,   33.9,   34.5,   37.5,   40.3,   41.3,   40.5,   41.0,   45.6,   44.9,   47.0,   48.9,   47.2,   44.3,   44.4,   48.0,   51.8,   45.5,   45.8,   49.1,   49.0,   52.1,   52.2,   50.5,   51.8,   54.1,   55.6,   53.1,   55.0,   54.0,   54.6,   55.0,   53.7,   55.2,   51.2,   49.5,   55.4,   51.8,   51.5,   55.0,   60.2,   58.7,  999.0,  999.0,  999.0,  999.0,   58.6,   60.1,   59.8,   65.1,   57.0,   59.6,   66.1,  999.0,   52.7,   54.5,   56.6,   57.7,   50.7,   49.0,   46.4,   51.5,   43.5,   45.0,   45.9,   43.8,   41.9,   34.9,   36.6,   34.7,   38.0,   36.4,   36.4,   37.9,   33.9,   35.4,   36.1,  999.0,   29.0,   27.8,   24.2,   22.3,   24.8,   28.9,   26.2,   26.1,   24.2,   22.9,  999.0,   24.9,   19.7,   15.1,   16.5,   15.7,   16.9,   14.8,   15.8
1986/11/14 10:25,  999.0,  999.0,  999.0,  999.0,  999.0,  999.0,  999.0,  999.0,  999.0,  999.0,  999.0,  999.0,  999.0,  999.0,  999.0,  999.0,  999.0,  999.0,  999.0,  999.0,  999.0,  999.0,  999.0,  999.0,  999.0,  999.0,  999.0,  999.0,  999.0,  999.0,  999.0,  999.0,  999.0,  999.0,  999.0,  999.0,  999.0,  999.0,  999.0,  999.0,  999.0,  999.0,  999.0,  999.0,  999.0,  999.0,  999.0,  999.0,  999.0,  999.0,  999.0,  999.0,  999.0,  999.0,  999.0,  999.0,  999.0,  999.0,  999.0,  999.0,  999.0,  999.0,  999.0,  999.0,  999.0,  999.0,  999.0,  999.0,  999.0,  999.0,  999.0,  999.0,  999.0,  999.0,  999.0,  999.0,  999.0,  999.0,  999.0,  999.0,  999.0,  999.0,  999.0,  999.0,  999.0,  999.0,  999.0,  999.0,  999.0,  999.0,  999.0,  999.0,  999.0,  999.0,  999.0,  999.0,  999.0,  999.0,  999.0,  999.0,  999.0,  999.0,  999.0,  999.0,  999.0,  999.0,  999.0,  999.0,  999.0,  999.0,  999.0,  999.0,  999.0,  999.0,  999.0,  999.0,  999.0,  999.0,  999.0,  999.0
1986/11/14 10:35,  999.0,  999.0,  999.0,  999.0,  999.0,  999.0,  999.0,  999.0,  999.0,  999.0,  999.0,  999.0,  999.0,  999.0,  999.0,  999.0,  999.0,  999.0,  999.0,  999.0,  999.0,  999.0,   28.5,   32.5,   34.1,   35.2,   35.7,   36.0,   37.6,   37.6,   40.9,   43.4,   45.1,   44.6,   44.6,   42.3,   44.9,   48.7,   45.7,   47.5,   47.5,   46.2,   48.0,   49.6,   46.5,   50.4,   50.0,   51.2,   51.8,   54.1,   52.5,   51.3,   51.5,   54.1,   55.0,   56.4,  999.0,   52.0,   51.4,   52.1,   54.7,   52.9,   54.4,   58.7,   62.1,  999.0,  999.0,  999.0,  999.0,  999.0,   55.6,   60.4,   62.0,   61.5,   61.4,   58.4,   63.2,   61.8,   49.8,   53.5,   52.2,   51.2,   51.3,   49.7,   46.3,   53.5,   43.2,   47.9,   47.0,   41.4,   35.7,   34.8,   38.3,   39.2,   34.4,   37.2,   37.6,   35.7,  999.0,  999.0,   31.6,   35.7,   29.7,   23.3,   25.4,   27.6,   29.1,   27.2,   27.7,   27.0,   21.7,   23.6,   22.0,   19.4,   17.4,   17.0,   16.6,   16.9,   17.6,   13.7
1986/11/14 10:45,  999.0,  999.0,  999.0,  999.0,  999.0,  999.0,  999.0,  999.0,  999.0,  999.0,  999.0,  999.0,  999.0,  999.0,  999.0,  999.0,  999.0,  999.0,  999.0,  999.0,  999.0,  999.0,   28.3,   31.0,   34.3,   33.1,   34.7,   36.8,   37.5,   39.1,   42.0,   44.4,   46.0,   44.5,   44.8,   43.7,   44.6,   49.2,   50.7,   47.7,   45.2,   46.4,   48.6,   47.8,   46.9,   50.7,   49.6,   51.5,   52.7,   54.8,   54.9,   51.7,   51.4,   52.7,   53.2,   53.7,   55.4,   53.7,   53.8,   50.6,   54.6,   52.4,   54.2,   59.1,   60.8,  999.0,  999.0,  999.0,  999.0,  999.0,   54.2,   57.8,   58.8,   58.6,   66.5,   60.6,   61.2,  999.0,   53.7,   52.3,   55.1,   54.2,   53.3,   51.0,   44.8,   50.3,   43.6,   48.7,   48.2,   42.2,   39.4,   39.4,   39.1,   40.4,   39.6,   39.8,   37.3,   40.3,  999.0,   37.5,   36.7,   39.4,   29.9,   25.7,   27.7,   29.6,   32.0,   26.1,   27.7,   26.9,   22.9,   24.1,   24.1,   19.1,   16.5,   16.8,   17.9,   18.0,   18.9,   14.1
1986/11/14 10:55,  999.0,  999.0,  999.0,  999.0,  999.0,  999.0,  999.0,  999.0,  999.0,  999.0,  999.0,  999.0,  999.0,  999.0,  999.0,  999.0,  999.0,  999.0,  999.0,  999.0,  999.0,  999.0,   29.5,   32.7,   32.4,   33.0,   33.5,   36.7,   38.0,   40.5,   42.9,   44.2,   43.8,   44.5,   43.9,   43.3,   43.6,   47.1,   50.4,   49.7,   47.2,   47.9,   48.2,   49.0,   48.3,   50.3,   48.7,   51.7,   54.1,   56.2,   54.4,   53.4,   51.5,   51.3,   53.4,   54.2,   56.1,   54.6,   50.2,   50.9,   52.1,   51.2,   53.7,   60.3,   58.5,   56.6,  999.0,  999.0,  999.0,  999.0,  999.0,   55.8,   59.9,   60.3,   63.7,   62.2,   62.1,   56.0,   57.8,   54.4,   55.7,   53.0,   54.4,   47.6,   46.3,   48.8,   43.3,   47.8,   50.3,   42.3,   39.8,   35.4,   40.5,   39.6,   40.8,   40.0,   36.5,   40.4,   38.5,   36.7,   38.3,   30.7,   29.1,   26.8,   29.2,   29.7,   32.5,   25.5,   27.5,   27.3,   22.6,   24.8,   24.9,   20.0,   15.8,   16.5,   17.6,   19.2,   20.1,   13.3
1986/11/14 11:05,  999.0,  999.0,  999.0,  999.0,  999.0,  999.0,  999.0,  999.0,  999.0,  999.0,  999.0,  999.0,  999.0,  999.0,  999.0,  999.0,  999.0,  999.0,  999.0,  999.0,  999.0,  999.0,   29.8,   31.9,   31.5,   32.0,   33.0,   34.8,   37.0,   40.1,   42.7,   43.3,   43.4,   44.4,   45.1,   40.6,   44.3,   50.3,   48.0,   47.6,   47.8,   48.6,   49.2,   48.0,   48.3,   50.9,   48.8,   51.4,   53.5,   54.7,   56.2,   55.2,   51.3,   50.3,   51.5,   55.0,   57.7,   52.4,   51.4,   52.5,   52.5,   52.6,   53.5,   59.2,   58.4,  999.0,  999.0,  999.0,  999.0,  999.0,  999.0,   57.0,   58.3,   63.4,   53.2,   62.6,   57.4,   61.4,  999.0,   52.4,   53.6,   55.2,   51.9,   49.3,   47.7,   49.7,   43.6,   49.1,   49.7,   44.4,   42.5,   36.2,   39.5,   40.4,   41.7,   38.5,   39.5,   41.7,   37.9,   38.8,   37.9,   33.7,   29.3,   28.6,   28.1,   28.7,   32.3,   26.8,   26.8,   26.4,   23.2,   24.1,   23.7,   18.5,   14.6,   15.9,   17.2,   18.8,   20.1,   12.6
1986/11/14 11:15,  999.0,  999.0,  999.0,  999.0,  999.0,  999.0,  999.0,  999.0,  999.0,  999.0,  999.0,  999.0,  999.0,  999.0,  999.0,  999.0,  999.0,  999.0,  999.0,  999.0,  999.0,  999.0,   30.2,   31.1,   31.4,   32.3,   34.6,   34.8,   37.0,   39.5,   41.8,   43.0,   44.3,   45.1,   45.4,   40.8,   45.5,   49.8,   49.6,   50.1,   48.8,   48.8,   49.5,   49.7,   49.4,   50.9,   51.0,   50.6,   52.4,   52.7,   53.9,   53.7,   52.3,   51.4,   50.9,   54.2,   56.4,   55.2,   52.0,   53.0,   54.2,   54.5,   53.6,   59.3,   61.2,   61.0,  999.0,  999.0,  999.0,  999.0,  999.0,   54.2,   58.9,   63.9,   62.2,   65.3,   56.2,   59.9,   62.6,   50.9,   53.7,   52.9,   52.8,   47.8,   48.8,   47.6,   42.7,   47.3,   51.3,   42.4,   39.8,   37.5,   37.4,   38.8,   40.9,   38.9,   40.2,   40.9,   37.8,   41.0,   40.7,   29.8,   30.1,   26.8,   28.2,   27.4,   30.3,   23.8,   24.8,   26.1,   23.7,   24.7,   24.9,   20.8,   13.6,   15.0,   17.3,   19.0,   18.9,   15.9
1986/11/14 11:25,  999.0,  999.0,  999.0,  999.0,  999.0,  999.0,  999.0,  999.0,  999.0,  999.0,  999.0,  999.0,  999.0,  999.0,  999.0,  999.0,  999.0,  999.0,  999.0,  999.0,  999.0,  999.0,   30.1,   31.0,   31.4,   32.7,   35.0,   35.2,   37.3,   39.6,   42.9,   45.5,   45.2,   45.1,   45.1,   43.5,   44.2,   49.8,   53.6,   47.8,   49.4,   48.8,   49.5,   48.6,   49.6,   51.0,   48.8,   49.2,   52.8,   52.5,   53.5,   53.8,   53.1,   50.5,   50.9,   55.2,   57.0,   51.1,   54.2,   52.5,   54.9,   53.0,   55.2,   59.8,   61.6,  999.0,   56.9,  999.0,  999.0,  999.0,  999.0,   54.2,   58.1,   63.6,   63.2,   62.2,   55.2,   55.7,   59.8,   51.3,   51.5,   54.4,   53.8,   47.6,   48.8,   47.3,   43.4,   47.8,   51.0,   44.3,   39.5,   39.0,   38.2,   39.0,   40.2,   39.1,   39.6,   44.6,   38.2,   40.1,   41.8,   31.1,   30.0,   28.5,   28.9,   27.1,   30.3,   31.6,   25.9,   25.8,   24.8,   25.9,   23.3,   22.1,   14.5,   15.3,   17.7,   19.4,   19.7,   15.6
1986/11/14 11:35,  999.0,  999.0,  999.0,  999.0,  999.0,  999.0,  999.0,  999.0,  999.0,  999.0,  999.0,  999.0,  999.0,  999.0,  999.0,  999.0,  999.0,  999.0,  999.0,  999.0,  999.0,  999.0,   31.2,   31.0,   31.3,   32.8,   35.1,   36.0,   38.8,   40.3,   42.8,   44.7,   44.6,   44.7,   44.7,   45.5,   42.9,   47.6,   48.8,   46.5,   49.0,   49.6,   48.9,   49.0,   52.5,   50.4,   51.5,   51.0,   53.5,   53.6,   52.2,   53.6,   52.3,   52.2,   52.9,   56.3,   56.4,   59.0,   53.5,   54.7,   54.1,   53.7,   56.9,   62.1,   60.5,  999.0,   59.7,  999.0,  999.0,  999.0,  999.0,  999.0,   56.8,   62.8,   63.1,   62.0,   60.9,   55.5,   52.6,   57.3,   54.0,   53.5,   53.1,   48.5,   47.3,   50.6,   44.2,   48.3,   50.0,  999.0,   38.9,   38.7,   38.4,   38.7,   40.7,   37.5,   39.8,   42.0,   38.2,   40.2,   40.2,   32.8,   32.2,   28.8,   29.8,   27.6,   30.9,   33.0,   25.9,   27.6,   24.6,   23.6,   22.3,   21.1,   16.6,   16.0,   17.7,   18.8,   19.5,   13.7
1986/11/14 11:45,  999.0,  999.0,  999.0,  999.0,  999.0,  999.0,  999.0,  999.0,  999.0,  999.0,  999.0,  999.0,  999.0,  999.0,  999.0,  999.0,  999.0,  999.0,  999.0,  999.0,  999.0,  999.0,  999.0,  999.0,  999.0,  999.0,  999.0,  999.0,  999.0,  999.0,  999.0,  999.0,  999.0,  999.0,  999.0,  999.0,  999.0,  999.0,  999.0,  999.0,  999.0,  999.0,  999.0,  999.0,  999.0,  999.0,  999.0,  999.0,  999.0,  999.0,  999.0,  999.0,  999.0,  999.0,  999.0,  999.0,  999.0,  999.0,  999.0,  999.0,  999.0,  999.0,  999.0,  999.0,  999.0,  999.0,  999.0,  999.0,  999.0,  999.0,  999.0,  999.0,  999.0,  999.0,  999.0,  999.0,  999.0,  999.0,  999.0,  999.0,  999.0,  999.0,  999.0,  999.0,  999.0,  999.0,  999.0,  999.0,  999.0,  999.0,  999.0,  999.0,  999.0,  999.0,  999.0,  999.0,  999.0,  999.0,  999.0,  999.0,  999.0,  999.0,  999.0,  999.0,  999.0,  999.0,  999.0,  999.0,  999.0,  999.0,  999.0,  999.0,  999.0,  999.0,  999.0,  999.0,  999.0,  999.0,  999.0,  999.0
1986/11/14 11:55,  999.0,  999.0,  999.0,  999.0,  999.0,  999.0,  999.0,  999.0,  999.0,  999.0,  999.0,  999.0,  999.0,  999.0,  999.0,  999.0,  999.0,  999.0,  999.0,  999.0,  999.0,  999.0,  999.0,  999.0,  999.0,  999.0,  999.0,  999.0,  999.0,  999.0,  999.0,  999.0,  999.0,  999.0,  999.0,  999.0,  999.0,  999.0,  999.0,  999.0,  999.0,  999.0,  999.0,  999.0,  999.0,  999.0,  999.0,  999.0,  999.0,  999.0,  999.0,  999.0,  999.0,  999.0,  999.0,  999.0,  999.0,  999.0,  999.0,  999.0,  999.0,  999.0,  999.0,  999.0,  999.0,  999.0,  999.0,  999.0,  999.0,  999.0,  999.0,  999.0,  999.0,  999.0,  999.0,  999.0,  999.0,  999.0,  999.0,  999.0,  999.0,  999.0,  999.0,  999.0,  999.0,  999.0,  999.0,  999.0,  999.0,  999.0,  999.0,  999.0,  999.0,  999.0,  999.0,  999.0,  999.0,  999.0,  999.0,  999.0,  999.0,  999.0,  999.0,  999.0,  999.0,  999.0,  999.0,  999.0,  999.0,  999.0,  999.0,  999.0,  999.0,  999.0,  999.0,  999.0,  999.0,  999.0,  999.0,  999.0
1986/11/14 12:05,  999.0,  999.0,  999.0,  999.0,  999.0,  999.0,  999.0,  999.0,  999.0,  999.0,  999.0,  999.0,  999.0,  999.0,  999.0,  999.0,  999.0,  999.0,  999.0,  999.0,  999.0,  999.0,  999.0,  999.0,  999.0,  999.0,  999.0,  999.0,  999.0,  999.0,  999.0,  999.0,  999.0,  999.0,  999.0,  999.0,  999.0,  999.0,  999.0,  999.0,  999.0,  999.0,  999.0,  999.0,  999.0,  999.0,  999.0,  999.0,  999.0,  999.0,  999.0,  999.0,  999.0,  999.0,  999.0,  999.0,  999.0,  999.0,  999.0,  999.0,  999.0,  999.0,  999.0,  999.0,  999.0,  999.0,  999.0,  999.0,  999.0,  999.0,  999.0,  999.0,  999.0,  999.0,  999.0,  999.0,  999.0,  999.0,  999.0,  999.0,  999.0,  999.0,  999.0,  999.0,  999.0,  999.0,  999.0,  999.0,  999.0,  999.0,  999.0,  999.0,  999.0,  999.0,  999.0,  999.0,  999.0,  999.0,  999.0,  999.0,  999.0,  999.0,  999.0,  999.0,  999.0,  999.0,  999.0,  999.0,  999.0,  999.0,  999.0,  999.0,  999.0,  999.0,  999.0,  999.0,  999.0,  999.0,  999.0,  999.0
1986/11/14 12:15,  999.0,  999.0,  999.0,  999.0,  999.0,  999.0,  999.0,  999.0,  999.0,  999.0,  999.0,  999.0,  999.0,  999.0,  999.0,  999.0,  999.0,  999.0,  999.0,  999.0,  999.0,  999.0,  999.0,  999.0,  999.0,  999.0,  999.0,  999.0,  999.0,  999.0,  999.0,  999.0,  999.0,  999.0,  999.0,  999.0,  999.0,  999.0,  999.0,  999.0,  999.0,  999.0,  999.0,  999.0,  999.0,  999.0,  999.0,  999.0,  999.0,  999.0,  999.0,  999.0,  999.0,  999.0,  999.0,  999.0,  999.0,  999.0,  999.0,  999.0,  999.0,  999.0,  999.0,  999.0,  999.0,  999.0,  999.0,  999.0,  999.0,  999.0,  999.0,  999.0,  999.0,  999.0,  999.0,  999.0,  999.0,  999.0,  999.0,  999.0,  999.0,  999.0,  999.0,  999.0,  999.0,  999.0,  999.0,  999.0,  999.0,  999.0,  999.0,  999.0,  999.0,  999.0,  999.0,  999.0,  999.0,  999.0,  999.0,  999.0,  999.0,  999.0,  999.0,  999.0,  999.0,  999.0,  999.0,  999.0,  999.0,  999.0,  999.0,  999.0,  999.0,  999.0,  999.0,  999.0,  999.0,  999.0,  999.0,  999.0
1986/11/14 12:25,  999.0,  999.0,  999.0,  999.0,  999.0,  999.0,  999.0,  999.0,  999.0,  999.0,  999.0,  999.0,  999.0,  999.0,  999.0,  999.0,  999.0,  999.0,  999.0,  999.0,  999.0,  999.0,  999.0,  999.0,  999.0,  999.0,  999.0,  999.0,  999.0,  999.0,  999.0,  999.0,  999.0,  999.0,  999.0,  999.0,  999.0,  999.0,  999.0,  999.0,  999.0,  999.0,  999.0,  999.0,  999.0,  999.0,  999.0,  999.0,  999.0,  999.0,  999.0,  999.0,  999.0,  999.0,  999.0,  999.0,  999.0,  999.0,  999.0,  999.0,  999.0,  999.0,  999.0,  999.0,  999.0,  999.0,  999.0,  999.0,  999.0,  999.0,  999.0,  999.0,  999.0,  999.0,  999.0,  999.0,  999.0,  999.0,  999.0,  999.0,  999.0,  999.0,  999.0,  999.0,  999.0,  999.0,  999.0,  999.0,  999.0,  999.0,  999.0,  999.0,  999.0,  999.0,  999.0,  999.0,  999.0,  999.0,  999.0,  999.0,  999.0,  999.0,  999.0,  999.0,  999.0,  999.0,  999.0,  999.0,  999.0,  999.0,  999.0,  999.0,  999.0,  999.0,  999.0,  999.0,  999.0,  999.0,  999.0,  999.0
1986/11/14 12:35,  999.0,  999.0,  999.0,  999.0,  999.0,  999.0,  999.0,  999.0,  999.0,  999.0,  999.0,  999.0,  999.0,  999.0,  999.0,  999.0,  999.0,  999.0,  999.0,  999.0,  999.0,  999.0,  999.0,  999.0,   31.5,   34.3,   35.1,   35.1,   39.3,   41.9,   43.8,   44.5,   47.1,   47.1,   48.2,   47.2,   48.5,   49.8,   46.5,   48.5,   51.2,   46.5,   46.9,   50.7,   48.6,   49.2,   52.0,   52.6,  999.0,   53.2,   51.7,   53.4,   55.6,   54.6,   51.2,   54.4,   52.3,   53.0,   56.9,   54.4,   56.7,   54.0,   59.5,   61.5,   57.2,   56.6,  999.0,  999.0,  999.0,  999.0,  999.0,   53.0,   59.6,   59.3,   60.5,   60.7,   61.8,  999.0,  999.0,  999.0,  999.0,   51.0,   50.9,   52.5,   48.9,   47.0,   48.8,   45.0,   48.6,   50.1,   41.7,   38.0,   39.1,   42.3,  999.0,   34.9,   36.9,  999.0,  999.0,   39.0,   42.3,   33.9,   32.0,   28.6,   26.9,   30.3,   29.6,   30.7,   27.8,  999.0,  999.0,   22.8,   22.4,   22.5,   16.3,   17.5,   20.7,   19.6,   20.6,   16.6
1986/11/14 12:45,  999.0,  999.0,  999.0,  999.0,  999.0,  999.0,  999.0,  999.0,  999.0,  999.0,  999.0,  999.0,  999.0,  999.0,  999.0,  999.0,  999.0,  999.0,  999.0,  999.0,  999.0,  999.0,  999.0,  999.0,  999.0,  999.0,  999.0,  999.0,  999.0,  999.0,  999.0,  999.0,  999.0,  999.0,  999.0,  999.0,  999.0,  999.0,  999.0,  999.0,  999.0,  999.0,  999.0,  999.0,  999.0,  999.0,  999.0,  999.0,  999.0,  999.0,  999.0,  999.0,  999.0,  999.0,  999.0,  999.0,  999.0,  999.0,  999.0,  999.0,  999.0,  999.0,  999.0,  999.0,  999.0,  999.0,  999.0,  999.0,  999.0,  999.0,  999.0,  999.0,  999.0,  999.0,  999.0,  999.0,  999.0,  999.0,  999.0,  999.0,  999.0,  999.0,  999.0,  999.0,  999.0,  999.0,  999.0,  999.0,  999.0,  999.0,  999.0,  999.0,  999.0,  999.0,  999.0,  999.0,  999.0,  999.0,  999.0,  999.0,  999.0,  999.0,  999.0,  999.0,  999.0,  999.0,  999.0,  999.0,  999.0,  999.0,  999.0,  999.0,  999.0,  999.0,  999.0,  999.0,  999.0,  999.0,  999.0,  999.0
1986/11/14 12:55,  999.0,  999.0,  999.0,  999.0,  999.0,  999.0,  999.0,  999.0,  999.0,  999.0,  999.0,  999.0,  999.0,  999.0,  999.0,  999.0,  999.0,  999.0,  999.0,  999.0,  999.0,  999.0,   30.8,   32.2,   33.4,   35.9,   37.8,   39.5,   43.3,   44.4,   45.2,   44.4,   44.6,   44.9,   45.4,   43.8,   43.4,   42.3,   46.6,   47.7,   49.2,   48.9,   49.6,   51.3,   48.7,   48.9,   52.0,   51.2,   55.6,   54.8,   53.3,   53.6,   52.4,   57.1,   59.1,   54.8,   55.5,   55.4,   52.5,   52.3,   53.9,   52.7,   55.5,   60.9,   56.1,   58.2,  999.0,  999.0,  999.0,  999.0,  999.0,  999.0,   59.4,   60.2,   61.3,   61.5,   61.9,  999.0,  999.0,   50.6,   55.1,   51.6,   50.5,   47.2,   50.5,   49.2,   44.8,   47.1,   50.1,   50.7,   39.7,   40.3,   39.7,   42.0,   36.1,   37.2,   38.1,   42.2,  999.0,   37.2,   42.8,   30.2,   29.9,   28.1,   28.8,  999.0,   28.5,   30.8,   27.1,   25.4,   26.7,   25.0,   26.3,   23.0,   17.8,   18.2,   22.1,   21.6,   21.0,   17.5
1986/11/14 13:05,  999.0,  999.0,  999.0,  999.0,  999.0,  999.0,  999.0,  999.0,  999.0,  999.0,  999.0,  999.0,  999.0,  999.0,  999.0,  999.0,  999.0,  999.0,  999.0,  999.0,  999.0,  999.0,   31.7,   32.6,   34.7,   36.3,   37.5,   39.1,   41.7,   43.5,   45.4,   45.8,   44.9,   45.1,   46.0,   47.1,   47.1,   46.5,   47.5,   48.4,   49.1,   51.4,   49.3,   49.5,   47.9,   48.7,   51.3,   49.5,   54.5,   53.2,   55.4,   52.3,   53.1,   52.1,   57.7,   54.8,   54.0,   55.8,   51.6,   54.4,   54.1,   54.4,   56.6,   61.3,   57.0,   61.2,  999.0,  999.0,  999.0,  999.0,  999.0,   55.7,   57.7,   61.0,   60.5,   60.6,  999.0,  999.0,  999.0,   51.6,   54.5,   51.4,   51.0,   49.2,   50.0,   48.9,   44.8,   47.2,   48.6,   50.0,  999.0,   39.3,   40.0,   41.4,   37.5,   38.5,   38.3,   39.9,  999.0,   36.8,   42.0,   30.8,   28.9,   28.9,   30.5,   27.6,   30.2,   31.2,   28.8,   26.6,   26.9,   25.1,   25.9,   23.1,   17.4,   18.5,   22.2,   19.5,   20.2,   16.4
1986/11/14 13:15,  999.0,  999.0,  999.0,  999.0,  999.0,  999.0,  999.0,  999.0,  999.0,  999.0,  999.0,  999.0,  999.0,  999.0,  999.0,  999.0,  999.0,  999.0,  999.0,  999.0,  999.0,  999.0,   30.3,   31.9,   34.1,   36.4,   38.0,   40.5,   41.3,   42.8,   43.9,   45.6,   47.6,   46.8,   46.5,   45.9,   49.1,   48.9,   47.6,   49.7,   48.5,   51.2,   52.0,   49.7,   48.4,   47.7,   50.3,   50.4,   53.5,   53.0,   56.2,   52.4,   51.4,   52.6,   56.4,   57.1,   51.9,   54.0,   53.7,   53.8,   54.9,   54.1,   58.3,   56.1,   60.2,  999.0,  999.0,  999.0,  999.0,  999.0,  999.0,  999.0,   58.2,   59.6,   61.3,   61.7,   64.4,  999.0,  999.0,  999.0,   55.1,   48.1,   51.4,   55.1,   48.4,   49.2,   46.9,   45.8,   48.7,   48.0,   42.7,   37.1,   41.3,   41.3,   37.2,   39.9,   39.5,   36.9,   34.9,   36.2,   40.4,   38.2,   29.7,   29.5,   30.0,   27.7,   31.6,   32.2,   25.2,   27.2,   28.7,   26.1,   26.3,   21.7,   17.5,   18.5,   23.3,   19.8,   20.9,   14.8
1986/11/14 13:25,  999.0,  999.0,  999.0,  999.0,  999.0,  999.0,  999.0,  999.0,  999.0,  999.0,  999.0,  999.0,  999.0,  999.0,  999.0,  999.0,  999.0,  999.0,  999.0,  999.0,  999.0,  999.0,   29.6,   30.3,   32.4,   34.8,   37.2,   39.6,   42.5,   44.0,   45.1,   46.8,   47.7,   46.9,   46.9,   45.7,   47.3,   49.6,   50.8,   50.9,   50.2,   50.8,   49.9,   50.0,   47.5,   48.0,   50.3,   49.0,   49.9,   54.1,   55.0,   52.9,   50.9,   53.2,   58.1,   55.2,   51.5,   52.8,   54.5,   54.3,   54.7,   55.0,   58.3,   57.4,   58.9,   57.5,  999.0,  999.0,  999.0,  999.0,  999.0,   52.0,   57.3,   61.2,   60.5,   62.3,  999.0,  999.0,  999.0,  999.0,   53.5,   53.4,   48.7,   54.7,   47.0,   48.4,   49.2,   46.8,   49.3,   49.4,   43.5,   38.8,   40.2,   42.7,   37.2,   39.7,   39.9,   40.2,   38.4,   36.0,   40.2,   35.2,   30.1,   29.6,   30.5,   29.2,   30.8,   31.3,   26.8,   27.3,   28.4,   25.6,   25.3,   21.4,   18.4,   20.5,   23.8,   21.9,   20.0,   12.1
1986/11/14 13:35,  999.0,  999.0,  999.0,  999.0,  999.0,  999.0,  999.0,  999.0,  999.0,  999.0,  999.0,  999.0,  999.0,  999.0,  999.0,  999.0,  999.0,  999.0,  999.0,  999.0,  999.0,  999.0,   31.3,   30.5,   32.4,   34.2,   35.8,   37.9,   40.1,   42.4,   44.4,   45.3,   46.2,   47.6,   47.7,   47.8,   47.5,   46.5,   48.5,   51.8,   50.2,   50.2,   50.2,   50.7,   50.5,   48.6,   50.0,   49.3,   50.4,   54.8,   56.5,   53.0,   51.4,   55.6,   56.9,   54.5,   55.9,   51.1,   56.2,   54.6,   54.6,   56.2,   57.4,   59.3,   62.8,   58.1,  999.0,  999.0,  999.0,  999.0,  999.0,  999.0,   56.8,   57.5,   61.8,   65.4,  999.0,  999.0,  999.0,   49.4,   55.5,   50.6,   48.6,   53.0,   46.9,   49.9,   48.0,   46.6,   49.1,   48.0,  999.0,   39.4,   38.8,   40.5,   38.0,   35.1,   35.6,   41.4,   36.5,   34.9,   35.7,   35.4,   28.4,   27.9,   29.3,   28.6,   28.1,   31.4,   28.0,   27.3,   25.6,   24.7,   23.5,   21.5,   17.3,   20.0,   23.4,   22.7,   22.3,   12.8
1986/11/14 13:45,  999.0,  999.0,  999.0,  999.0,  999.0,  999.0,  999.0,  999.0,  999.0,  999.0,  999.0,  999.0,  999.0,  999.0,  999.0,  999.0,  999.0,  999.0,  999.0,  999.0,  999.0,  999.0,   29.7,   31.2,   32.1,   33.4,   37.1,   40.3,   42.2,   43.3,   43.9,   43.1,   44.5,   46.2,   48.2,   49.1,   48.7,   45.2,   49.4,   52.3,   49.0,   49.3,   48.6,   50.0,   48.2,   50.4,   51.4,   48.5,   50.9,   52.3,   56.1,   49.5,   53.1,   55.7,   52.9,   53.6,   53.3,   54.6,   53.1,   56.5,   52.1,   56.8,   54.7,   59.9,   56.2,   60.6,  999.0,  999.0,  999.0,  999.0,  999.0,   53.2,   58.2,   61.5,   58.8,   64.2,   63.0,  999.0,  999.0,  999.0,   53.9,   52.1,   49.8,   56.3,   44.7,   49.0,   49.7,   45.2,   49.0,   51.4,  999.0,   39.5,   41.5,   41.3,   40.3,   42.3,   35.7,   39.2,  999.0,   36.6,   37.6,   34.0,   30.3,   30.2,   33.7,   29.8,   31.5,   32.4,   33.9,   27.6,   25.9,   24.2,   25.2,   19.7,   19.0,   22.3,   23.5,   21.5,   18.2,   11.3
1986/11/14 13:55,  999.0,  999.0,  999.0,  999.0,  999.0,  999.0,  999.0,  999.0,  999.0,  999.0,  999.0,  999.0,  999.0,  999.0,  999.0,  999.0,  999.0,  999.0,  999.0,  999.0,  999.0,  999.0,   29.9,   31.2,   32.3,   34.7,   38.8,   41.6,   42.5,   40.7,   42.5,   45.1,   48.0,   49.4,   51.3,   49.5,   48.3,   48.6,   48.5,   52.9,   49.5,   49.1,   50.1,   52.9,   50.4,   49.1,   50.8,   49.3,   50.4,   52.6,   55.4,   48.7,   51.6,   56.9,   51.5,   55.8,   52.0,   51.6,   54.2,   51.4,   55.4,   55.2,   56.1,   60.4,   60.5,  999.0,  999.0,  999.0,  999.0,  999.0,   55.5,   52.6,   55.8,   57.1,   61.8,   64.7,  999.0,  999.0,  999.0,  999.0,   50.8,   56.3,   47.3,   50.7,   49.2,   48.3,   51.0,   46.1,   47.6,   50.9,   44.8,   43.4,   38.4,   41.4,   37.9,   38.8,   36.2,   37.0,  999.0,  999.0,   34.3,   33.9,   29.3,   29.0,   29.7,   29.8,   30.5,   30.7,   35.3,  999.0,   27.4,   26.5,   24.9,   20.3,   20.3,   23.2,   25.9,   23.2,   21.2,   13.7
1986/11/14 14:05,  999.0,  999.0,  999.0,  999.0,  999.0,  999.0,  999.0,  999.0,  999.0,  999.0,  999.0,  999.0,  999.0,  999.0,  999.0,  999.0,  999.0,  999.0,  999.0,  999.0,  999.0,  999.0,   30.1,   31.1,   32.2,   34.4,   37.7,   39.2,   41.0,   41.3,   42.5,   43.4,   47.3,   47.2,   48.4,   48.3,   48.5,   48.0,   45.5,  999.0,   53.1,   49.1,   50.8,   50.8,   50.3,   48.8,   49.8,   50.7,   52.8,   53.8,   53.2,   48.6,   50.9,   56.5,   51.8,   55.7,   50.7,   53.3,   57.3,   49.3,   56.3,   55.1,   57.1,   59.1,   60.3,  999.0,  999.0,  999.0,  999.0,  999.0,  999.0,   55.1,   56.4,   61.8,   67.4,  999.0,  999.0,  999.0,  999.0,   51.5,   54.7,   52.1,   51.5,   49.2,   50.1,   48.1,   50.5,   46.2,   48.6,   52.1,   43.9,   45.8,   39.2,   40.0,   39.8,   38.7,   36.7,   39.0,  999.0,   34.8,   35.0,   33.1,   29.3,   27.5,   29.7,   27.7,   29.7,   29.7,   32.0,   26.3,   27.2,   25.9,   24.0,   18.5,   19.7,   22.4,   22.0,   23.2,   23.1,  999.0
1986/11/14 14:15,  999.0,  999.0,  999.0,  999.0,  999.0,  999.0,  999.0,  999.0,  999.0,  999.0,  999.0,  999.0,  999.0,  999.0,  999.0,  999.0,  999.0,  999.0,  999.0,  999.0,  999.0,  999.0,   30.3,   31.7,   31.6,   33.3,   34.9,   38.3,   39.8,   40.7,   40.2,   41.7,   43.8,   45.8,   47.0,   49.2,   49.1,   48.6,   49.3,   45.8,   51.6,   53.1,   51.0,   49.7,   49.3,   49.5,   50.3,   50.2,   52.5,   52.2,   56.1,   47.2,   52.7,   55.8,   52.0,   55.0,   53.9,   54.0,   55.1,   54.7,   53.7,   56.5,   56.2,   58.6,   57.5,  999.0,  999.0,  999.0,  999.0,  999.0,  999.0,   56.0,   57.1,   63.1,  999.0,  999.0,  999.0,  999.0,  999.0,   51.8,   56.2,   55.8,   50.9,   52.6,   51.1,   52.8,   51.8,   48.1,   51.5,   50.1,   47.6,   46.0,   38.9,   40.9,   40.6,   34.2,   37.9,   42.2,  999.0,  999.0,   35.5,   34.4,   28.2,   27.2,   29.9,   28.9,   31.5,   30.8,   35.2,   28.8,   28.7,   30.3,   23.3,   21.8,   22.0,   24.4,   21.8,   21.8,   15.8,   14.5
1986/11/14 14:25,  999.0,  999.0,  999.0,  999.0,  999.0,  999.0,  999.0,  999.0,  999.0,  999.0,  999.0,  999.0,  999.0,  999.0,  999.0,  999.0,  999.0,  999.0,  999.0,  999.0,  999.0,  999.0,   30.8,   33.0,   32.2,   34.1,   37.9,   38.9,   38.2,   39.6,   39.5,   42.0,   44.7,   44.5,   47.0,   47.9,   49.3,   50.6,   49.4,   49.5,   46.7,   52.3,   54.8,   49.8,   48.2,   50.6,   51.9,   51.2,   55.4,   57.6,   52.8,   51.6,   52.0,   54.6,   52.9,   55.2,   54.4,   55.2,   55.2,   53.4,   55.5,   56.1,   59.0,   58.1,  999.0,  999.0,  999.0,  999.0,  999.0,  999.0,  999.0,  999.0,   55.5,   59.5,   66.7,  999.0,  999.0,  999.0,  999.0,   52.2,   56.0,   55.6,   50.9,   52.0,   51.5,   51.4,   49.7,   48.3,   51.2,   52.6,   44.0,   44.5,   43.7,   40.5,   42.3,   34.0,   35.6,   38.2,   36.1,   33.3,   35.5,   35.2,   29.4,   28.2,   29.9,   31.6,   29.8,   30.9,   32.1,   30.5,   29.3,   30.5,   24.7,   21.0,   22.8,   23.4,   20.4,   18.8,   15.8,   10.5
1986/11/14 14:35,  999.0,  999.0,  999.0,  999.0,  999.0,  999.0,  999.0,  999.0,  999.0,  999.0,  999.0,  999.0,  999.0,  999.0,  999.0,  999.0,  999.0,  999.0,  999.0,  999.0,  999.0,  999.0,   31.9,   33.0,   32.9,   35.7,   39.3,   40.9,   40.2,   40.5,   41.2,   42.5,   44.4,   45.0,   46.6,   45.5,   47.3,   49.7,   49.8,   49.7,   47.1,   52.6,   55.6,   50.5,   49.4,   50.5,   51.4,   50.0,   55.5,   57.1,   52.0,   51.0,   53.5,   56.9,   52.9,   54.0,   53.4,   55.1,   55.6,   54.3,   55.4,   58.0,   57.3,   61.3,  999.0,  999.0,  999.0,  999.0,  999.0,  999.0,   59.7,   57.6,   57.2,   62.1,   67.1,  999.0,  999.0,   58.2,   53.1,   53.7,   55.5,   55.0,   49.2,   54.2,   49.8,   50.5,   50.2,   49.6,   52.4,   52.7,   45.3,   45.4,   46.2,   39.4,   41.2,   37.7,   35.8,   38.5,   36.4,  999.0,   34.0,   30.5,   29.1,   27.7,   29.5,   30.9,   29.0,   29.3,   31.2,   31.4,   28.5,   29.9,   26.2,   22.7,   22.0,   23.9,   22.1,   20.3,   17.9,   12.4
1986/11/14 14:45,  999.0,  999.0,  999.0,  999.0,  999.0,  999.0,  999.0,  999.0,  999.0,  999.0,  999.0,  999.0,  999.0,  999.0,  999.0,  999.0,  999.0,  999.0,  999.0,  999.0,  999.0,  999.0,   32.5,   32.2,   32.7,   35.0,   38.1,   38.9,   38.3,   38.8,   40.1,   43.1,   44.0,   45.3,   47.5,   48.1,   47.4,   47.0,   48.4,   48.3,   50.9,   53.8,   51.5,   50.5,   50.0,   50.8,   50.3,   49.4,   53.0,   55.4,   51.7,   52.8,   56.7,   54.3,   54.9,   52.7,   55.4,   54.1,   54.2,   52.9,   56.8,   57.4,   59.6,  999.0,  999.0,  999.0,  999.0,  999.0,  999.0,   53.1,   58.4,   57.9,   55.3,   63.6,   61.6,  999.0,  999.0,  999.0,   52.7,   53.6,   54.3,  999.0,   48.9,   51.7,   51.3,   49.7,   51.7,   48.9,   51.6,   53.3,   44.8,   44.5,   45.8,   40.9,   41.6,   36.4,   35.3,   38.6,  999.0,   33.9,   34.0,   32.4,   26.0,   27.9,   28.8,   27.2,   30.1,   28.9,   31.2,   30.2,   30.1,   24.7,   26.1,   24.8,   22.7,   24.7,   23.3,   19.4,   17.7,   13.8
1986/11/14 14:55,  999.0,  999.0,  999.0,  999.0,  999.0,  999.0,  999.0,  999.0,  999.0,  999.0,  999.0,  999.0,  999.0,  999.0,  999.0,  999.0,  999.0,  999.0,  999.0,  999.0,  999.0,  999.0,   32.3,   32.0,   33.2,   37.0,   38.5,   37.2,   37.6,   39.3,   42.6,   42.4,   43.3,   44.7,   45.1,   46.4,   47.2,   47.5,   46.1,   46.5,   52.4,   53.6,   49.8,   49.2,   50.5,   50.4,   48.8,   49.3,   53.6,   59.2,   51.2,   54.5,   53.9,   54.5,   56.8,   56.0,   53.7,   55.5,   56.4,   55.3,   56.1,   61.3,  999.0,  999.0,  999.0,  999.0,  999.0,  999.0,  999.0,   57.3,   59.0,   57.4,   58.0,   64.6,  999.0,  999.0,   52.8,   55.5,   50.9,   54.1,   56.7,  999.0,   49.4,   53.5,   49.3,   50.7,   51.3,   51.3,   53.8,   51.5,   47.3,   45.6,   46.4,   41.5,   39.5,   37.1,   35.5,   38.4,  999.0,   32.8,   35.3,   34.7,   29.3,   29.5,   28.3,   30.2,   28.6,   30.5,   29.9,   31.8,   29.2,   25.3,   24.0,   24.6,   22.5,   24.2,   24.3,   22.7,   18.1,   16.3
1986/11/14 15:05,  999.0,  999.0,  999.0,  999.0,  999.0,  999.0,  999.0,  999.0,  999.0,  999.0,  999.0,  999.0,  999.0,  999.0,  999.0,  999.0,  999.0,  999.0,  999.0,  999.0,  999.0,  999.0,   31.8,   32.2,   34.3,   36.5,   37.3,   37.3,   38.6,   40.7,   42.2,   44.1,   45.2,   46.8,   46.9,   47.7,   46.9,   44.3,   47.8,   49.4,   50.9,   50.1,   49.5,   49.2,   50.3,   52.2,   47.6,   50.1,   52.5,   57.6,   55.1,   52.2,   53.6,   54.6,   58.0,   54.6,   54.8,   55.7,   53.7,   55.8,   56.7,   60.2,  999.0,  999.0,  999.0,  999.0,  999.0,  999.0,  999.0,   53.5,   57.8,   56.7,   61.1,   66.6,  999.0,   57.1,   57.0,  999.0,   50.4,   54.0,   56.2,   50.9,   49.2,   51.2,   51.3,   52.0,   50.4,   53.7,   54.5,   49.7,   47.3,   47.9,   43.7,   41.9,   40.1,   37.2,   37.3,   33.2,   36.5,   30.3,   32.3,   34.0,   28.9,   27.3,   28.2,   31.3,   29.2,   29.0,   29.6,   31.4,   31.2,   24.2,   24.9,   26.6,   22.5,   24.2,   24.4,   22.0,   19.2,   18.9
1986/11/14 15:15,  999.0,  999.0,  999.0,  999.0,  999.0,  999.0,  999.0,  999.0,  999.0,  999.0,  999.0,  999.0,  999.0,  999.0,  999.0,  999.0,  999.0,  999.0,  999.0,  999.0,  999.0,  999.0,   31.2,   31.8,   35.5,   37.9,   38.1,   36.4,   38.9,   40.0,   41.4,   44.4,   45.8,   46.3,   47.2,   47.6,   42.7,   45.8,   49.4,   49.1,   50.2,   47.1,   49.4,   48.7,   50.3,   49.5,   48.2,   49.5,   52.0,   57.0,   52.0,   52.0,   52.9,   54.7,   53.0,   52.5,   55.5,   53.0,   54.7,   57.0,   57.3,   60.3,   58.5,   58.0,  999.0,  999.0,  999.0,  999.0,  999.0,  999.0,   57.8,   56.6,   60.3,  999.0,  999.0,   55.7,   56.4,   58.5,   53.2,   53.4,   55.2,   55.1,   48.2,   50.2,   51.0,   50.9,   51.1,   54.3,   53.6,   48.5,   45.9,   47.4,   44.6,   42.6,   42.8,   41.2,   37.3,   32.5,   34.2,   34.1,   30.8,   33.5,   29.5,   27.8,   29.8,   28.1,   29.5,   27.5,   28.0,   31.5,   29.2,   25.4,   25.7,   26.7,   23.7,   24.3,   22.1,   19.7,   17.7,   17.8
1986/11/14 15:25,  999.0,  999.0,  999.0,  999.0,  999.0,  999.0,  999.0,  999.0,  999.0,  999.0,  999.0,  999.0,  999.0,  999.0,  999.0,  999.0,  999.0,  999.0,  999.0,  999.0,  999.0,  999.0,   31.8,   35.0,   37.2,   36.3,   36.4,   36.7,   38.2,   39.8,   42.9,   43.3,   44.2,   45.8,   46.1,   45.0,   47.1,   51.0,   48.4,   48.7,   48.4,   47.4,   47.5,   49.4,   49.0,   48.1,   49.4,   49.6,   51.9,   56.0,  999.0,  999.0,   51.9,   49.5,   53.4,   52.8,   54.2,   52.8,   55.2,   55.8,   57.2,   58.0,  999.0,  999.0,  999.0,  999.0,  999.0,  999.0,  999.0,   55.2,   58.1,   57.4,   60.2,   67.2,  999.0,  999.0,   56.4,   55.8,   55.8,   55.6,   53.5,   56.2,   47.7,   51.2,   51.6,   49.9,   52.1,   55.2,   55.1,   50.4,   48.3,   47.9,   46.7,   44.2,   45.2,   41.1,   40.0,   32.4,   35.2,   36.5,   30.8,   34.7,   33.9,   31.2,   30.8,  999.0,   28.8,   29.5,   27.6,   31.3,   29.2,   25.8,   26.9,   26.6,   24.6,   25.9,   21.4,   17.0,   16.8,   16.0
1986/11/14 15:35,  999.0,  999.0,  999.0,  999.0,  999.0,  999.0,  999.0,  999.0,  999.0,  999.0,  999.0,  999.0,  999.0,  999.0,  999.0,  999.0,  999.0,  999.0,  999.0,  999.0,  999.0,  999.0,   34.6,   37.9,   37.5,   37.1,   38.1,   38.0,   39.4,   42.4,   42.7,   43.5,   43.0,   45.1,   45.6,   47.2,   48.5,   49.0,   48.5,   50.6,   47.7,   46.5,   48.9,   48.9,   48.6,   49.8,   49.0,   49.6,   52.2,   57.2,   51.4,   52.8,   51.6,   52.5,   50.3,   53.8,   55.4,   55.6,   55.1,   56.5,   58.0,   57.5,  999.0,  999.0,  999.0,  999.0,  999.0,  999.0,  999.0,   52.5,   56.4,   58.3,   59.6,   66.3,  999.0,   56.3,   54.6,   55.8,   56.2,   50.1,   53.3,   55.2,   47.4,   51.2,   49.3,   50.8,   51.0,   50.2,   53.2,   50.1,   47.2,   47.8,   45.6,   43.5,   44.0,   41.0,   41.2,   37.4,   33.7,   35.6,   32.8,   35.4,   35.7,   30.6,   32.1,   31.0,   31.1,   32.9,   28.9,   31.9,   29.8,   29.6,   30.5,   25.7,   25.3,   25.6,   24.8,   17.5,   17.7,   16.6
1986/11/14 15:45,  999.0,  999.0,  999.0,  999.0,  999.0,  999.0,  999.0,  999.0,  999.0,  999.0,  999.0,  999.0,  999.0,  999.0,  999.0,  999.0,  999.0,  999.0,  999.0,  999.0,  999.0,  999.0,   35.1,   36.8,   37.1,   37.4,   37.9,   40.9,   42.4,   45.2,   43.6,   44.4,   45.4,   43.3,   45.0,   48.2,   48.8,   46.2,   45.2,   47.0,   47.2,   47.0,   48.4,   49.3,   49.6,   52.1,   49.8,   49.8,   51.4,   55.7,   53.7,   53.3,   53.2,   53.5,   52.7,   52.4,   56.5,   56.9,   55.4,   55.8,   58.4,   60.1,  999.0,  999.0,  999.0,  999.0,  999.0,  999.0,  999.0,  999.0,   54.9,   58.3,   60.5,   65.9,  999.0,   54.7,   56.7,   53.5,   53.0,   53.1,   51.7,   51.1,   47.1,   47.1,   52.5,   47.7,   51.1,   47.3,   48.2,   49.8,   47.5,   44.3,   42.9,   41.2,   39.5,   38.6,   34.6,   37.1,   30.6,   32.9,   30.8,   32.0,   32.1,   30.1,   30.1,   31.6,   30.6,   29.1,   27.2,   29.6,   29.6,   30.5,   26.6,   27.3,   23.5,   24.0,   22.7,   20.7,   16.0,   16.5
1986/11/14 15:55,  999.0,  999.0,  999.0,  999.0,  999.0,  999.0,  999.0,  999.0,  999.0,  999.0,  999.0,  999.0,  999.0,  999.0,  999.0,  999.0,  999.0,  999.0,  999.0,  999.0,  999.0,  999.0,   36.5,   37.2,   37.0,   37.0,   37.4,   38.5,   42.2,   44.1,   45.5,   45.6,   45.7,   43.6,   46.5,   51.9,   48.2,   45.0,   46.0,   46.7,   49.4,   49.6,   49.2,   50.2,   50.4,   51.2,   52.2,   50.6,   50.8,   53.8,   57.9,   52.6,   53.1,   52.2,   53.8,   50.9,   54.2,   57.8,   54.8,   56.8,   55.3,   58.2,  999.0,  999.0,  999.0,  999.0,  999.0,  999.0,  999.0,  999.0,   55.3,   59.3,   58.1,   65.0,  999.0,   55.7,   54.8,   50.5,   51.7,   52.6,   51.9,   52.4,   46.6,   48.2,   52.6,   49.6,   51.4,   47.6,   47.7,   50.7,   47.1,   43.0,   43.6,   39.3,   41.0,   38.6,   34.5,   36.6,   29.6,   32.5,   31.3,   30.2,   29.4,   27.8,   29.3,   29.8,   29.4,   29.4,   27.1,   28.5,   30.4,   29.2,   26.9,   25.4,   24.2,   23.6,   22.7,   21.6,   16.4,   15.7
1986/11/14 16:05,  999.0,  999.0,  999.0,  999.0,  999.0,  999.0,  999.0,  999.0,  999.0,  999.0,  999.0,  999.0,  999.0,  999.0,  999.0,  999.0,  999.0,  999.0,  999.0,  999.0,  999.0,  999.0,   37.6,   37.2,   37.4,   37.4,   36.8,   38.9,   40.2,   42.5,   43.7,   45.0,   47.1,   43.6,   45.6,   50.4,   44.9,   47.7,   45.2,   46.1,   51.0,   48.3,   48.3,   51.9,   51.7,   52.3,   53.5,   53.3,   50.5,   53.6,   56.6,   52.5,   52.4,   52.4,   52.6,   51.0,   55.8,   55.5,   56.4,   59.1,   54.7,   60.1,  999.0,  999.0,  999.0,  999.0,  999.0,  999.0,  999.0,  999.0,   55.1,   57.6,   59.9,   66.4,  999.0,   52.9,   56.3,   54.5,   52.4,   51.5,   53.0,  999.0,   46.9,   49.4,   48.9,   52.0,   49.9,   54.5,   43.2,   48.6,   48.5,  999.0,   42.9,   39.4,   41.7,   37.8,   41.1,   34.2,   33.5,   34.0,   30.0,   32.0,   32.5,   30.6,   31.8,   33.4,   30.6,   32.3,   27.4,   31.9,  999.0,   27.7,   26.1,   28.6,   24.0,   25.1,   23.2,   20.6,   16.9,   16.4
1986/11/14 16:15,  999.0,  999.0,  999.0,  999.0,  999.0,  999.0,  999.0,  999.0,  999.0,  999.0,  999.0,  999.0,  999.0,  999.0,  999.0,  999.0,  999.0,  999.0,  999.0,  999.0,  999.0,  999.0,   39.1,   40.0,   37.7,   37.3,   37.1,   38.1,   40.7,   43.3,   45.9,   46.3,   45.8,   40.6,   44.6,   48.3,   48.5,   49.4,   46.8,   46.8,   50.7,   47.3,   50.0,   53.3,   49.3,   52.7,   53.4,   53.5,   51.3,   53.2,   59.2,   53.4,   54.3,   54.1,   49.7,   51.0,   57.0,   53.1,   56.0,   58.9,   57.9,  999.0,  999.0,  999.0,  999.0,  999.0,  999.0,  999.0,  999.0,  999.0,  999.0,   56.9,   58.0,   65.7,  999.0,  999.0,  999.0,   57.9,   52.8,   54.0,   52.5,  999.0,   47.3,   50.0,   51.3,   51.9,   49.0,   54.0,   45.3,   50.9,   49.9,   47.4,   43.2,   40.3,   42.7,   37.7,   40.8,  999.0,   34.3,   37.5,  999.0,   33.1,   34.5,   32.1,   31.5,   31.3,   32.2,   31.6,   30.7,   32.7,   32.8,   28.9,   26.8,   28.6,   21.8,   22.9,   19.3,   17.7,   13.4,   12.5
